Time,TemperatureF,DewpointF,PressureIn,WindDirection,WindDirectionDegrees,WindSpeedMPH,WindSpeedGustMPH,Humidity,HourlyPrecipIn,Conditions,Clouds,dailyrainin,SoftwareType,DateUTC
2013-12-19 00:01:00,54.4,45.7,29.91,South,180,13.9,17.9,72,0.00,,,0.00,WUHU216HW,2013-12-19 06:01:00,
2013-12-19 00:02:00,54.4,45.7,29.91,South,180,9.8,17.9,72,0.00,,,0.00,WUHU216HW,2013-12-19 06:02:00,
2013-12-19 00:03:00,54.4,45.7,29.91,SSW,203,13.4,17.9,72,0.00,,,0.00,WUHU216HW,2013-12-19 06:03:00,
2013-12-19 00:05:00,54.4,45.7,29.91,South,180,13.0,17.9,72,0.00,,,0.00,WUHU216HW,2013-12-19 06:05:00,
2013-12-19 00:07:00,54.4,46.0,29.91,SW,225,11.0,17.9,73,0.00,,,0.00,WUHU216HW,2013-12-19 06:07:00,
2013-12-19 00:08:00,54.4,46.0,29.91,South,180,8.5,17.9,73,0.00,,,0.00,WUHU216HW,2013-12-19 06:08:00,
2013-12-19 00:10:00,54.4,46.0,29.91,South,180,12.1,17.9,73,0.00,,,0.00,WUHU216HW,2013-12-19 06:10:00,
2013-12-19 00:12:00,54.3,45.9,29.91,SSW,203,12.1,15.7,73,0.00,,,0.00,WUHU216HW,2013-12-19 06:12:00,
2013-12-19 00:13:00,54.3,46.3,29.91,South,180,6.3,15.7,74,0.00,,,0.00,WUHU216HW,2013-12-19 06:13:00,
2013-12-19 00:14:00,54.3,45.9,29.91,South,180,12.3,15.7,73,0.00,,,0.00,WUHU216HW,2013-12-19 06:14:00,
2013-12-19 00:15:00,54.3,46.3,29.91,South,180,13.2,15.7,74,0.00,,,0.00,WUHU216HW,2013-12-19 06:15:00,
2013-12-19 00:17:00,54.1,46.1,29.91,SSW,203,8.5,15.4,74,0.00,,,0.00,WUHU216HW,2013-12-19 06:17:00,
2013-12-19 00:18:00,54.1,46.1,29.91,South,180,15.4,15.4,74,0.00,,,0.00,WUHU216HW,2013-12-19 06:18:00,
2013-12-19 00:19:00,54.1,46.1,29.91,South,180,12.1,15.4,74,0.00,,,0.00,WUHU216HW,2013-12-19 06:19:00,
2013-12-19 00:20:00,54.1,46.4,29.91,SW,225,11.0,15.4,75,0.00,,,0.00,WUHU216HW,2013-12-19 06:20:00,
2013-12-19 00:22:00,54.1,46.4,29.91,South,180,10.3,15.4,75,0.00,,,0.00,WUHU216HW,2013-12-19 06:22:00,
2013-12-19 00:24:00,54.1,46.4,29.91,South,180,12.8,15.4,75,0.00,,,0.00,WUHU216HW,2013-12-19 06:24:00,
2013-12-19 00:26:00,54.1,46.8,29.90,SSW,203,8.9,15.4,76,0.00,,,0.00,WUHU216HW,2013-12-19 06:26:00,
2013-12-19 00:27:00,54.1,46.8,29.90,South,180,14.3,15.4,76,0.00,,,0.00,WUHU216HW,2013-12-19 06:27:00,
2013-12-19 00:29:00,54.1,46.8,29.90,SSW,203,9.6,14.8,76,0.00,,,0.00,WUHU216HW,2013-12-19 06:29:00,
2013-12-19 00:30:00,53.9,46.6,29.90,SSE,158,9.4,14.8,76,0.00,,,0.00,WUHU216HW,2013-12-19 06:30:00,
2013-12-19 00:31:00,53.9,46.6,29.90,SE,135,8.9,14.8,76,0.00,,,0.00,WUHU216HW,2013-12-19 06:31:00,
2013-12-19 00:32:00,53.9,46.6,29.90,SSW,203,14.3,14.8,76,0.00,,,0.00,WUHU216HW,2013-12-19 06:32:00,
2013-12-19 00:34:00,53.9,46.9,29.90,South,180,12.8,14.8,77,0.00,,,0.00,WUHU216HW,2013-12-19 06:34:00,
2013-12-19 00:35:00,53.9,46.9,29.90,SSW,203,8.5,14.3,77,0.00,,,0.00,WUHU216HW,2013-12-19 06:35:00,
2013-12-19 00:36:00,53.9,46.9,29.90,South,180,10.5,14.3,77,0.00,,,0.00,WUHU216HW,2013-12-19 06:36:00,
2013-12-19 00:38:00,53.7,46.7,29.90,SSE,158,12.5,14.3,77,0.00,,,0.00,WUHU216HW,2013-12-19 06:38:00,
2013-12-19 00:39:00,53.7,46.7,29.90,South,180,9.2,14.3,77,0.00,,,0.00,WUHU216HW,2013-12-19 06:39:00,
2013-12-19 00:40:00,53.7,47.1,29.90,South,180,12.8,14.3,78,0.00,,,0.00,WUHU216HW,2013-12-19 06:40:00,
2013-12-19 00:41:00,53.7,47.1,29.90,SSE,158,11.9,14.3,78,0.00,,,0.00,WUHU216HW,2013-12-19 06:41:00,
2013-12-19 00:43:00,53.7,47.1,29.90,SSE,158,11.4,14.3,78,0.00,,,0.00,WUHU216HW,2013-12-19 06:43:00,
2013-12-19 00:44:00,53.5,46.9,29.90,SSW,203,10.1,12.8,78,0.00,,,0.00,WUHU216HW,2013-12-19 06:44:00,
2013-12-19 00:45:00,53.5,46.9,29.90,SSW,203,12.3,13.6,78,0.00,,,0.00,WUHU216HW,2013-12-19 06:45:00,
2013-12-19 00:48:00,53.5,47.2,29.90,SSW,203,11.9,13.6,79,0.00,,,0.00,WUHU216HW,2013-12-19 06:48:00,
2013-12-19 00:50:00,53.5,47.2,29.90,South,180,7.6,13.6,79,0.00,,,0.00,WUHU216HW,2013-12-19 06:50:00,
2013-12-19 00:53:00,53.4,46.8,29.90,SSW,203,6.0,13.6,78,0.00,,,0.00,WUHU216HW,2013-12-19 06:53:00,
2013-12-19 00:55:00,53.4,46.8,29.90,SSE,158,8.9,13.6,78,0.00,,,0.00,WUHU216HW,2013-12-19 06:55:00,
2013-12-19 00:58:00,53.4,47.1,29.90,SSW,203,9.6,12.8,79,0.00,,,0.00,WUHU216HW,2013-12-19 06:58:00,
2013-12-19 00:59:00,53.4,47.1,29.90,South,180,12.3,12.8,79,0.00,,,0.00,WUHU216HW,2013-12-19 06:59:00,
2013-12-19 01:00:00,53.4,47.1,29.90,SSW,203,7.4,12.8,79,0.00,,,0.00,WUHU216HW,2013-12-19 07:00:00,
2013-12-19 01:02:00,53.4,47.1,29.90,South,180,8.5,12.8,79,0.00,,,0.00,WUHU216HW,2013-12-19 07:02:00,
2013-12-19 01:03:00,53.4,47.1,29.90,SSW,203,16.8,16.8,79,0.00,,,0.00,WUHU216HW,2013-12-19 07:03:00,
2013-12-19 01:04:00,53.4,47.4,29.90,SSW,203,12.1,16.8,80,0.00,,,0.00,WUHU216HW,2013-12-19 07:04:00,
2013-12-19 01:05:00,53.4,47.4,29.90,SSW,203,10.5,16.8,80,0.00,,,0.00,WUHU216HW,2013-12-19 07:05:00,
2013-12-19 01:06:00,53.4,47.1,29.90,South,180,8.9,16.8,79,0.00,,,0.00,WUHU216HW,2013-12-19 07:06:00,
2013-12-19 01:07:00,53.4,47.4,29.90,South,180,9.4,16.8,80,0.00,,,0.00,WUHU216HW,2013-12-19 07:07:00,
2013-12-19 01:08:00,53.4,47.4,29.90,SW,225,7.6,16.8,80,0.00,,,0.00,WUHU216HW,2013-12-19 07:08:00,
2013-12-19 01:10:00,53.4,47.4,29.90,South,180,8.3,16.8,80,0.00,,,0.00,WUHU216HW,2013-12-19 07:10:00,
2013-12-19 01:11:00,53.4,47.4,29.90,SSE,158,10.7,16.8,80,0.00,,,0.00,WUHU216HW,2013-12-19 07:11:00,
2013-12-19 01:13:00,53.2,47.2,29.90,South,180,9.4,16.8,80,0.00,,,0.00,WUHU216HW,2013-12-19 07:13:00,
2013-12-19 01:15:00,53.2,47.2,29.89,South,180,10.5,12.1,80,0.00,,,0.00,WUHU216HW,2013-12-19 07:15:00,
2013-12-19 01:16:00,53.2,47.2,29.89,SSE,158,8.5,12.1,80,0.00,,,0.00,WUHU216HW,2013-12-19 07:16:00,
2013-12-19 01:17:00,53.2,47.2,29.89,South,180,9.2,12.1,80,0.00,,,0.00,WUHU216HW,2013-12-19 07:17:00,
2013-12-19 01:18:00,53.0,47.0,29.89,SW,225,10.3,12.1,80,0.00,,,0.00,WUHU216HW,2013-12-19 07:18:00,
2013-12-19 01:20:00,53.0,47.0,29.89,SSW,203,9.2,12.1,80,0.00,,,0.00,WUHU216HW,2013-12-19 07:20:00,
2013-12-19 01:21:00,53.0,47.0,29.89,South,180,8.9,12.1,80,0.00,,,0.00,WUHU216HW,2013-12-19 07:21:00,
2013-12-19 01:22:00,53.0,47.4,29.89,SSE,158,9.8,13.0,81,0.00,,,0.00,WUHU216HW,2013-12-19 07:22:00,
2013-12-19 01:23:00,53.0,47.4,29.89,SSW,203,9.2,13.0,81,0.00,,,0.00,WUHU216HW,2013-12-19 07:23:00,
2013-12-19 01:24:00,53.0,47.0,29.89,SSE,158,9.2,13.0,80,0.00,,,0.00,WUHU216HW,2013-12-19 07:24:00,
2013-12-19 01:25:00,53.0,47.4,29.89,South,180,10.5,13.0,81,0.00,,,0.00,WUHU216HW,2013-12-19 07:25:00,
2013-12-19 01:26:00,53.0,47.4,29.89,SE,135,11.2,13.4,81,0.00,,,0.00,WUHU216HW,2013-12-19 07:26:00,
2013-12-19 01:27:00,53.0,47.4,29.89,South,180,7.4,13.4,81,0.00,,,0.00,WUHU216HW,2013-12-19 07:27:00,
2013-12-19 01:28:00,53.0,47.4,29.89,South,180,9.2,15.0,81,0.00,,,0.00,WUHU216HW,2013-12-19 07:28:00,
2013-12-19 01:29:00,53.0,47.4,29.89,SSE,158,8.1,15.0,81,0.00,,,0.00,WUHU216HW,2013-12-19 07:29:00,
2013-12-19 01:31:00,53.0,47.4,29.89,South,180,8.5,15.0,81,0.00,,,0.00,WUHU216HW,2013-12-19 07:31:00,
2013-12-19 01:33:00,53.0,47.4,29.89,SSW,203,7.6,15.7,81,0.00,,,0.00,WUHU216HW,2013-12-19 07:33:00,
2013-12-19 01:34:00,53.0,47.4,29.89,SSE,158,14.3,15.7,81,0.00,,,0.00,WUHU216HW,2013-12-19 07:34:00,
2013-12-19 01:36:00,53.0,47.4,29.89,SSE,158,9.8,15.7,81,0.00,,,0.00,WUHU216HW,2013-12-19 07:36:00,
2013-12-19 01:38:00,52.8,47.5,29.89,SSW,203,10.5,15.7,82,0.00,,,0.00,WUHU216HW,2013-12-19 07:38:00,
2013-12-19 01:39:00,52.8,47.5,29.89,South,180,9.6,15.7,82,0.00,,,0.00,WUHU216HW,2013-12-19 07:39:00,
2013-12-19 01:41:00,52.8,47.5,29.89,SSW,203,8.3,14.8,82,0.00,,,0.00,WUHU216HW,2013-12-19 07:41:00,
2013-12-19 01:42:00,52.8,47.5,29.89,South,180,10.5,14.8,82,0.00,,,0.00,WUHU216HW,2013-12-19 07:42:00,
2013-12-19 01:43:00,52.8,47.5,29.89,SSE,158,11.4,14.8,82,0.00,,,0.00,WUHU216HW,2013-12-19 07:43:00,
2013-12-19 01:44:00,52.8,47.5,29.89,SSW,203,8.9,14.8,82,0.00,,,0.00,WUHU216HW,2013-12-19 07:44:00,
2013-12-19 01:47:00,52.8,47.5,29.89,South,180,11.0,14.8,82,0.00,,,0.00,WUHU216HW,2013-12-19 07:47:00,
2013-12-19 01:49:00,52.6,47.3,29.88,SSE,158,9.8,14.8,82,0.00,,,0.00,WUHU216HW,2013-12-19 07:49:00,
2013-12-19 01:52:00,52.6,47.3,29.88,South,180,13.6,14.3,82,0.00,,,0.00,WUHU216HW,2013-12-19 07:52:00,
2013-12-19 01:53:00,52.6,47.6,29.88,SSE,158,10.5,15.2,83,0.00,,,0.00,WUHU216HW,2013-12-19 07:53:00,
2013-12-19 01:54:00,52.6,47.3,29.88,SSE,158,10.5,15.2,82,0.00,,,0.00,WUHU216HW,2013-12-19 07:54:00,
2013-12-19 01:55:00,52.6,47.3,29.88,SSE,158,10.5,15.2,82,0.00,,,0.00,WUHU216HW,2013-12-19 07:55:00,
2013-12-19 01:57:00,52.6,47.6,29.88,SSE,158,10.7,15.2,83,0.00,,,0.00,WUHU216HW,2013-12-19 07:57:00,
2013-12-19 01:58:00,52.6,47.6,29.88,South,180,9.2,15.2,83,0.00,,,0.00,WUHU216HW,2013-12-19 07:58:00,
2013-12-19 01:59:00,52.6,47.6,29.88,SSW,203,10.1,15.2,83,0.00,,,0.00,WUHU216HW,2013-12-19 07:59:00,
2013-12-19 02:00:00,52.6,47.6,29.88,South,180,10.5,15.2,83,0.00,,,0.00,WUHU216HW,2013-12-19 08:00:00,
2013-12-19 02:02:00,52.6,47.6,29.88,South,180,10.5,15.2,83,0.00,,,0.00,WUHU216HW,2013-12-19 08:02:00,
2013-12-19 02:03:00,52.6,47.6,29.88,SSE,158,12.1,13.2,83,0.00,,,0.00,WUHU216HW,2013-12-19 08:03:00,
2013-12-19 02:04:00,52.6,47.6,29.88,South,180,10.5,13.2,83,0.00,,,0.00,WUHU216HW,2013-12-19 08:04:00,
2013-12-19 02:05:00,52.6,47.6,29.88,SE,135,9.4,13.2,83,0.00,,,0.00,WUHU216HW,2013-12-19 08:05:00,
2013-12-19 02:07:00,52.6,47.6,29.89,South,180,11.9,13.2,83,0.00,,,0.00,WUHU216HW,2013-12-19 08:07:00,
2013-12-19 02:08:00,52.6,47.6,29.88,SSE,158,9.8,13.4,83,0.00,,,0.00,WUHU216HW,2013-12-19 08:08:00,
2013-12-19 02:09:00,52.6,47.6,29.88,SSE,158,6.3,13.4,83,0.00,,,0.00,WUHU216HW,2013-12-19 08:09:00,
2013-12-19 02:10:00,52.6,47.6,29.88,SW,225,11.4,13.4,83,0.00,,,0.00,WUHU216HW,2013-12-19 08:10:00,
2013-12-19 02:12:00,52.6,47.6,29.88,SE,135,9.2,13.4,83,0.00,,,0.00,WUHU216HW,2013-12-19 08:12:00,
2013-12-19 02:13:00,52.6,47.6,29.88,South,180,11.9,13.4,83,0.00,,,0.00,WUHU216HW,2013-12-19 08:13:00,
2013-12-19 02:15:00,52.6,47.9,29.88,SSW,203,9.8,13.4,84,0.00,,,0.00,WUHU216HW,2013-12-19 08:15:00,
2013-12-19 02:17:00,52.6,47.6,29.88,South,180,7.6,12.8,83,0.00,,,0.00,WUHU216HW,2013-12-19 08:17:00,
2013-12-19 02:18:00,52.5,47.5,29.88,South,180,5.8,12.8,83,0.00,,,0.00,WUHU216HW,2013-12-19 08:18:00,
2013-12-19 02:20:00,52.5,47.5,29.88,South,180,9.2,12.8,83,0.00,,,0.00,WUHU216HW,2013-12-19 08:20:00,
2013-12-19 02:21:00,52.5,47.5,29.88,South,180,9.2,12.8,83,0.00,,,0.00,WUHU216HW,2013-12-19 08:21:00,
2013-12-19 02:23:00,52.5,47.5,29.88,SSW,203,6.0,12.8,83,0.00,,,0.00,WUHU216HW,2013-12-19 08:23:00,
2013-12-19 02:25:00,52.3,47.6,29.88,SE,135,7.8,12.8,84,0.00,,,0.00,WUHU216HW,2013-12-19 08:25:00,
2013-12-19 02:26:00,52.5,47.8,29.88,South,180,9.8,11.4,84,0.00,,,0.00,WUHU216HW,2013-12-19 08:26:00,
2013-12-19 02:27:00,52.3,47.6,29.88,SSE,158,10.5,11.4,84,0.00,,,0.00,WUHU216HW,2013-12-19 08:27:00,
2013-12-19 02:28:00,52.5,47.8,29.88,South,180,10.1,10.7,84,0.00,,,0.00,WUHU216HW,2013-12-19 08:28:00,
2013-12-19 02:29:00,52.5,47.8,29.88,SSE,158,5.6,10.7,84,0.00,,,0.00,WUHU216HW,2013-12-19 08:29:00,
2013-12-19 02:30:00,52.5,47.8,29.88,South,180,10.5,10.7,84,0.00,,,0.00,WUHU216HW,2013-12-19 08:30:00,
2013-12-19 02:31:00,52.3,47.6,29.88,South,180,9.2,10.7,84,0.00,,,0.00,WUHU216HW,2013-12-19 08:31:00,
2013-12-19 02:32:00,52.5,47.8,29.88,SSW,203,6.9,10.7,84,0.00,,,0.00,WUHU216HW,2013-12-19 08:32:00,
2013-12-19 02:33:00,52.3,47.6,29.88,South,180,5.1,10.7,84,0.00,,,0.00,WUHU216HW,2013-12-19 08:33:00,
2013-12-19 02:34:00,52.3,47.6,29.88,SW,225,5.1,10.7,84,0.00,,,0.00,WUHU216HW,2013-12-19 08:34:00,
2013-12-19 02:35:00,52.3,47.6,29.88,SSE,158,9.4,10.5,84,0.00,,,0.00,WUHU216HW,2013-12-19 08:35:00,
2013-12-19 02:37:00,52.3,47.6,29.88,SE,135,9.2,11.6,84,0.00,,,0.00,WUHU216HW,2013-12-19 08:37:00,
2013-12-19 02:39:00,52.3,47.6,29.88,South,180,7.8,11.6,84,0.00,,,0.00,WUHU216HW,2013-12-19 08:39:00,
2013-12-19 02:41:00,52.3,47.6,29.88,SSW,203,8.3,11.6,84,0.00,,,0.00,WUHU216HW,2013-12-19 08:41:00,
2013-12-19 02:42:00,52.3,47.6,29.88,South,180,8.9,11.6,84,0.00,,,0.00,WUHU216HW,2013-12-19 08:42:00,
2013-12-19 02:44:00,52.3,47.6,29.88,South,180,9.2,11.6,84,0.00,,,0.00,WUHU216HW,2013-12-19 08:44:00,
2013-12-19 02:45:00,52.3,47.6,29.88,SSE,158,7.8,11.6,84,0.00,,,0.00,WUHU216HW,2013-12-19 08:45:00,
2013-12-19 02:46:00,52.1,47.4,29.88,SSW,203,6.9,11.6,84,0.00,,,0.00,WUHU216HW,2013-12-19 08:46:00,
2013-12-19 02:47:00,52.3,47.6,29.88,SSE,158,9.2,11.4,84,0.00,,,0.00,WUHU216HW,2013-12-19 08:47:00,
2013-12-19 02:49:00,52.3,47.9,29.88,SSE,158,11.6,14.1,85,0.00,,,0.00,WUHU216HW,2013-12-19 08:49:00,
2013-12-19 02:50:00,52.3,47.9,29.88,South,180,9.2,14.1,85,0.00,,,0.00,WUHU216HW,2013-12-19 08:50:00,
2013-12-19 02:51:00,52.3,47.9,29.88,South,180,7.6,14.1,85,0.00,,,0.00,WUHU216HW,2013-12-19 08:51:00,
2013-12-19 02:52:00,52.3,47.9,29.88,South,180,8.5,14.1,85,0.00,,,0.00,WUHU216HW,2013-12-19 08:52:00,
2013-12-19 02:54:00,52.3,47.9,29.88,South,180,12.5,14.1,85,0.00,,,0.00,WUHU216HW,2013-12-19 08:54:00,
2013-12-19 02:55:00,52.3,47.9,29.88,SSE,158,9.4,14.1,85,0.00,,,0.00,WUHU216HW,2013-12-19 08:55:00,
2013-12-19 02:56:00,52.3,47.9,29.88,South,180,9.2,14.1,85,0.00,,,0.00,WUHU216HW,2013-12-19 08:56:00,
2013-12-19 02:57:00,52.3,47.9,29.88,SSW,203,6.9,13.4,85,0.00,,,0.00,WUHU216HW,2013-12-19 08:57:00,
2013-12-19 02:58:00,52.3,47.9,29.88,SSW,203,6.9,13.4,85,0.00,,,0.00,WUHU216HW,2013-12-19 08:58:00,
2013-12-19 03:00:00,52.1,47.4,29.88,South,180,4.7,13.4,84,0.00,,,0.00,WUHU216HW,2013-12-19 09:00:00,
2013-12-19 03:01:00,52.3,47.6,29.88,SSE,158,10.7,13.4,84,0.00,,,0.00,WUHU216HW,2013-12-19 09:01:00,
2013-12-19 03:02:00,52.1,47.7,29.88,South,180,7.6,12.5,85,0.00,,,0.00,WUHU216HW,2013-12-19 09:02:00,
2013-12-19 03:03:00,52.1,47.7,29.88,SSE,158,12.1,12.5,85,0.00,,,0.00,WUHU216HW,2013-12-19 09:03:00,
2013-12-19 03:05:00,52.1,47.7,29.88,SSW,203,7.6,12.1,85,0.00,,,0.00,WUHU216HW,2013-12-19 09:05:00,
2013-12-19 03:06:00,52.1,47.7,29.88,SSE,158,10.5,12.1,85,0.00,,,0.00,WUHU216HW,2013-12-19 09:06:00,
2013-12-19 03:07:00,52.1,47.7,29.88,SSW,203,6.9,12.1,85,0.00,,,0.00,WUHU216HW,2013-12-19 09:07:00,
2013-12-19 03:08:00,52.1,47.7,29.88,South,180,8.1,12.1,85,0.00,,,0.00,WUHU216HW,2013-12-19 09:08:00,
2013-12-19 03:10:00,52.1,47.7,29.88,South,180,9.8,12.1,85,0.00,,,0.00,WUHU216HW,2013-12-19 09:10:00,
2013-12-19 03:11:00,52.1,47.7,29.88,SSW,203,13.4,13.4,85,0.00,,,0.00,WUHU216HW,2013-12-19 09:11:00,
2013-12-19 03:12:00,52.1,47.7,29.88,SSW,203,8.5,13.4,85,0.00,,,0.00,WUHU216HW,2013-12-19 09:12:00,
2013-12-19 03:13:00,52.1,47.7,29.88,South,180,5.8,13.4,85,0.00,,,0.00,WUHU216HW,2013-12-19 09:13:00,
2013-12-19 03:14:00,52.1,47.7,29.88,SE,135,7.4,13.4,85,0.00,,,0.00,WUHU216HW,2013-12-19 09:14:00,
2013-12-19 03:15:00,52.1,47.7,29.88,SSE,158,8.7,13.4,85,0.00,,,0.00,WUHU216HW,2013-12-19 09:15:00,
2013-12-19 03:16:00,51.9,47.5,29.88,South,180,9.6,13.4,85,0.00,,,0.00,WUHU216HW,2013-12-19 09:16:00,
2013-12-19 03:17:00,52.1,47.7,29.88,SSE,158,9.2,13.4,85,0.00,,,0.00,WUHU216HW,2013-12-19 09:17:00,
2013-12-19 03:18:00,51.9,47.5,29.88,SSW,203,6.9,13.4,85,0.00,,,0.00,WUHU216HW,2013-12-19 09:18:00,
2013-12-19 03:19:00,51.9,47.5,29.88,SSE,158,11.2,13.4,85,0.00,,,0.00,WUHU216HW,2013-12-19 09:19:00,
2013-12-19 03:20:00,51.9,47.5,29.88,South,180,7.6,13.4,85,0.00,,,0.00,WUHU216HW,2013-12-19 09:20:00,
2013-12-19 03:21:00,51.9,47.5,29.88,SSE,158,8.7,11.2,85,0.00,,,0.00,WUHU216HW,2013-12-19 09:21:00,
2013-12-19 03:22:00,51.9,47.5,29.88,South,180,9.4,11.2,85,0.00,,,0.00,WUHU216HW,2013-12-19 09:22:00,
2013-12-19 03:23:00,51.9,47.5,29.88,SSW,203,7.8,11.2,85,0.00,,,0.00,WUHU216HW,2013-12-19 09:23:00,
2013-12-19 03:24:00,51.9,47.5,29.88,South,180,9.8,12.1,85,0.00,,,0.00,WUHU216HW,2013-12-19 09:24:00,
2013-12-19 03:25:00,51.9,47.8,29.88,South,180,6.9,12.1,86,0.00,,,0.00,WUHU216HW,2013-12-19 09:25:00,
2013-12-19 03:26:00,51.9,47.8,29.88,SSE,158,12.1,14.3,86,0.00,,,0.00,WUHU216HW,2013-12-19 09:26:00,
2013-12-19 03:27:00,51.9,47.5,29.88,SSW,203,8.5,14.3,85,0.00,,,0.00,WUHU216HW,2013-12-19 09:27:00,
2013-12-19 03:28:00,51.9,47.5,29.88,South,180,8.5,14.3,85,0.00,,,0.00,WUHU216HW,2013-12-19 09:28:00,
2013-12-19 03:29:00,51.9,47.5,29.88,South,180,6.5,14.3,85,0.00,,,0.00,WUHU216HW,2013-12-19 09:29:00,
2013-12-19 03:31:00,51.9,47.5,29.88,South,180,7.6,14.3,85,0.00,,,0.00,WUHU216HW,2013-12-19 09:31:00,
2013-12-19 03:33:00,51.9,47.5,29.88,SSE,158,10.7,14.3,85,0.00,,,0.00,WUHU216HW,2013-12-19 09:33:00,
2013-12-19 03:34:00,51.9,47.5,29.88,SSW,203,6.9,14.3,85,0.00,,,0.00,WUHU216HW,2013-12-19 09:34:00,
2013-12-19 03:35:00,51.9,47.5,29.88,SE,135,9.2,14.3,85,0.00,,,0.00,WUHU216HW,2013-12-19 09:35:00,
2013-12-19 03:36:00,51.9,47.5,29.88,SSW,203,8.1,14.3,85,0.00,,,0.00,WUHU216HW,2013-12-19 09:36:00,
2013-12-19 03:38:00,51.9,47.5,29.87,SSE,158,7.6,13.2,85,0.00,,,0.00,WUHU216HW,2013-12-19 09:38:00,
2013-12-19 03:39:00,51.9,47.8,29.87,SSE,158,9.6,13.2,86,0.00,,,0.00,WUHU216HW,2013-12-19 09:39:00,
2013-12-19 03:40:00,51.9,47.8,29.87,SSE,158,7.8,13.2,86,0.00,,,0.00,WUHU216HW,2013-12-19 09:40:00,
2013-12-19 03:41:00,51.9,47.5,29.87,SSE,158,7.8,13.2,85,0.00,,,0.00,WUHU216HW,2013-12-19 09:41:00,
2013-12-19 03:42:00,51.9,47.5,29.87,South,180,6.9,13.2,85,0.00,,,0.00,WUHU216HW,2013-12-19 09:42:00,
2013-12-19 03:43:00,51.9,47.5,29.87,SSE,158,10.3,13.2,85,0.00,,,0.00,WUHU216HW,2013-12-19 09:43:00,
2013-12-19 03:44:00,51.9,47.5,29.87,SSW,203,7.6,13.2,85,0.00,,,0.00,WUHU216HW,2013-12-19 09:44:00,
2013-12-19 03:46:00,51.9,47.5,29.87,SSE,158,8.3,13.2,85,0.00,,,0.00,WUHU216HW,2013-12-19 09:46:00,
2013-12-19 03:47:00,51.9,47.5,29.87,SSE,158,10.1,12.3,85,0.00,,,0.00,WUHU216HW,2013-12-19 09:47:00,
2013-12-19 03:49:00,51.7,47.3,29.87,South,180,7.2,12.3,85,0.00,,,0.00,WUHU216HW,2013-12-19 09:49:00,
2013-12-19 03:51:00,51.7,47.3,29.87,South,180,9.2,12.3,85,0.00,,,0.00,WUHU216HW,2013-12-19 09:51:00,
2013-12-19 03:52:00,51.7,47.3,29.87,South,180,5.6,12.3,85,0.00,,,0.00,WUHU216HW,2013-12-19 09:52:00,
2013-12-19 03:54:00,51.7,47.3,29.87,SSW,203,7.4,12.3,85,0.00,,,0.00,WUHU216HW,2013-12-19 09:54:00,
2013-12-19 03:56:00,51.6,47.2,29.87,SSE,158,10.1,12.3,85,0.00,,,0.00,WUHU216HW,2013-12-19 09:56:00,
2013-12-19 03:57:00,51.6,47.2,29.87,SSW,203,9.2,12.3,85,0.00,,,0.00,WUHU216HW,2013-12-19 09:57:00,
2013-12-19 03:59:00,51.6,47.5,29.87,SSE,158,9.8,12.3,86,0.00,,,0.00,WUHU216HW,2013-12-19 09:59:00,
2013-12-19 04:00:00,51.6,47.5,29.87,SSE,158,9.8,11.2,86,0.00,,,0.00,WUHU216HW,2013-12-19 10:00:00,
2013-12-19 04:01:00,51.6,47.5,29.87,SSE,158,6.5,11.2,86,0.00,,,0.00,WUHU216HW,2013-12-19 10:01:00,
2013-12-19 04:02:00,51.6,47.5,29.87,SSE,158,6.0,11.2,86,0.00,,,0.00,WUHU216HW,2013-12-19 10:02:00,
2013-12-19 04:04:00,51.6,47.5,29.87,SSW,203,6.3,11.2,86,0.00,,,0.00,WUHU216HW,2013-12-19 10:04:00,
2013-12-19 04:06:00,51.6,47.5,29.87,SSE,158,7.2,11.2,86,0.00,,,0.00,WUHU216HW,2013-12-19 10:06:00,
2013-12-19 04:07:00,51.6,47.5,29.87,SSE,158,9.2,11.2,86,0.00,,,0.00,WUHU216HW,2013-12-19 10:07:00,
2013-12-19 04:09:00,51.7,47.6,29.87,South,180,9.2,10.7,86,0.00,,,0.00,WUHU216HW,2013-12-19 10:09:00,
2013-12-19 04:11:00,51.7,47.6,29.87,SSE,158,6.3,10.7,86,0.00,,,0.00,WUHU216HW,2013-12-19 10:11:00,
2013-12-19 04:12:00,51.7,47.6,29.87,SSE,158,6.3,10.7,86,0.00,,,0.00,WUHU216HW,2013-12-19 10:12:00,
2013-12-19 04:15:00,51.7,47.6,29.87,SSE,158,8.5,10.7,86,0.00,,,0.00,WUHU216HW,2013-12-19 10:15:00,
2013-12-19 04:17:00,51.7,47.6,29.87,SSE,158,4.9,10.7,86,0.00,,,0.00,WUHU216HW,2013-12-19 10:17:00,
2013-12-19 04:20:00,51.7,47.6,29.86,SSE,158,6.9,10.7,86,0.00,,,0.00,WUHU216HW,2013-12-19 10:20:00,
2013-12-19 04:22:00,51.7,47.6,29.87,South,180,7.2,10.7,86,0.00,,,0.00,WUHU216HW,2013-12-19 10:22:00,
2013-12-19 04:23:00,51.7,47.6,29.86,SSE,158,7.6,8.9,86,0.00,,,0.00,WUHU216HW,2013-12-19 10:23:00,
2013-12-19 04:25:00,51.9,47.8,29.86,SE,135,8.7,8.9,86,0.00,,,0.00,WUHU216HW,2013-12-19 10:25:00,
2013-12-19 04:27:00,51.7,47.6,29.86,South,180,9.2,10.5,86,0.00,,,0.00,WUHU216HW,2013-12-19 10:27:00,
2013-12-19 04:28:00,51.9,47.8,29.86,SSE,158,8.5,10.5,86,0.00,,,0.00,WUHU216HW,2013-12-19 10:28:00,
2013-12-19 04:29:00,51.9,47.8,29.86,SSE,158,6.9,11.0,86,0.00,,,0.00,WUHU216HW,2013-12-19 10:29:00,
2013-12-19 04:30:00,51.9,47.8,29.86,South,180,8.1,11.0,86,0.00,,,0.00,WUHU216HW,2013-12-19 10:30:00,
2013-12-19 04:32:00,51.9,47.8,29.86,SSW,203,9.2,11.0,86,0.00,,,0.00,WUHU216HW,2013-12-19 10:32:00,
2013-12-19 04:33:00,51.9,47.8,29.86,South,180,6.0,11.0,86,0.00,,,0.00,WUHU216HW,2013-12-19 10:33:00,
2013-12-19 04:34:00,51.9,47.5,29.86,SSE,158,6.9,11.0,85,0.00,,,0.00,WUHU216HW,2013-12-19 10:34:00,
2013-12-19 04:35:00,51.9,47.5,29.86,SSE,158,8.5,11.0,85,0.00,,,0.00,WUHU216HW,2013-12-19 10:35:00,
2013-12-19 04:37:00,51.9,47.8,29.86,SSE,158,7.2,11.0,86,0.00,,,0.00,WUHU216HW,2013-12-19 10:37:00,
2013-12-19 04:38:00,51.9,47.5,29.86,South,180,6.9,11.0,85,0.00,,,0.00,WUHU216HW,2013-12-19 10:38:00,
2013-12-19 04:39:00,51.9,47.8,29.86,SSW,203,8.7,10.5,86,0.00,,,0.00,WUHU216HW,2013-12-19 10:39:00,
2013-12-19 04:40:00,51.9,47.8,29.86,SSE,158,10.1,10.5,86,0.00,,,0.00,WUHU216HW,2013-12-19 10:40:00,
2013-12-19 04:42:00,51.9,47.5,29.86,South,180,7.2,10.1,85,0.00,,,0.00,WUHU216HW,2013-12-19 10:42:00,
2013-12-19 04:43:00,51.9,47.5,29.86,SSE,158,8.7,10.3,85,0.00,,,0.00,WUHU216HW,2013-12-19 10:43:00,
2013-12-19 04:44:00,51.9,47.5,29.86,SSE,158,8.5,10.3,85,0.00,,,0.00,WUHU216HW,2013-12-19 10:44:00,
2013-12-19 04:45:00,51.9,47.5,29.86,SSE,158,8.9,10.3,85,0.00,,,0.00,WUHU216HW,2013-12-19 10:45:00,
2013-12-19 04:47:00,51.9,47.8,29.86,SSE,158,11.2,13.0,86,0.00,,,0.00,WUHU216HW,2013-12-19 10:47:00,
2013-12-19 04:48:00,51.9,47.5,29.86,SSE,158,6.9,13.0,85,0.00,,,0.00,WUHU216HW,2013-12-19 10:48:00,
2013-12-19 04:49:00,51.9,47.5,29.85,SSE,158,7.2,13.0,85,0.00,,,0.00,WUHU216HW,2013-12-19 10:49:00,
2013-12-19 04:50:00,51.9,47.5,29.85,South,180,6.9,13.0,85,0.00,,,0.00,WUHU216HW,2013-12-19 10:50:00,
2013-12-19 04:52:00,52.1,48.0,29.85,South,180,10.5,13.2,86,0.00,,,0.00,WUHU216HW,2013-12-19 10:52:00,
2013-12-19 04:53:00,52.1,47.7,29.85,SSE,158,8.5,13.2,85,0.00,,,0.00,WUHU216HW,2013-12-19 10:53:00,
2013-12-19 04:54:00,52.1,47.7,29.85,SSW,203,9.6,13.2,85,0.00,,,0.00,WUHU216HW,2013-12-19 10:54:00,
2013-12-19 04:55:00,52.1,47.7,29.85,SSE,158,6.5,13.2,85,0.00,,,0.00,WUHU216HW,2013-12-19 10:55:00,
2013-12-19 04:57:00,52.1,47.7,29.85,South,180,8.5,13.2,85,0.00,,,0.00,WUHU216HW,2013-12-19 10:57:00,
2013-12-19 04:58:00,52.1,47.7,29.85,SSE,158,6.9,13.2,85,0.00,,,0.00,WUHU216HW,2013-12-19 10:58:00,
2013-12-19 04:59:00,52.1,47.7,29.85,SSE,158,6.9,13.2,85,0.00,,,0.00,WUHU216HW,2013-12-19 10:59:00,
2013-12-19 05:00:00,52.1,47.7,29.85,SSE,158,9.8,13.2,85,0.00,,,0.00,WUHU216HW,2013-12-19 11:00:00,
2013-12-19 05:01:00,52.1,48.0,29.85,SSW,203,9.6,13.2,86,0.00,,,0.00,WUHU216HW,2013-12-19 11:01:00,
2013-12-19 05:02:00,52.1,47.7,29.85,SSE,158,6.9,11.6,85,0.00,,,0.00,WUHU216HW,2013-12-19 11:02:00,
2013-12-19 05:03:00,52.1,48.0,29.85,SSE,158,9.6,11.6,86,0.00,,,0.00,WUHU216HW,2013-12-19 11:03:00,
2013-12-19 05:04:00,52.1,47.7,29.84,South,180,6.3,11.6,85,0.00,,,0.00,WUHU216HW,2013-12-19 11:04:00,
2013-12-19 05:05:00,52.1,47.7,29.85,SSE,158,8.9,11.6,85,0.00,,,0.00,WUHU216HW,2013-12-19 11:05:00,
2013-12-19 05:07:00,52.1,47.7,29.84,SSE,158,11.9,12.8,85,0.00,,,0.00,WUHU216HW,2013-12-19 11:07:00,
2013-12-19 05:08:00,52.1,47.7,29.84,SSE,158,8.1,14.8,85,0.00,,,0.00,WUHU216HW,2013-12-19 11:08:00,
2013-12-19 05:09:00,52.1,47.7,29.84,SSW,203,10.1,14.8,85,0.00,,,0.00,WUHU216HW,2013-12-19 11:09:00,
2013-12-19 05:11:00,51.9,47.5,29.84,South,180,6.9,14.8,85,0.00,,,0.00,WUHU216HW,2013-12-19 11:11:00,
2013-12-19 05:12:00,51.9,47.5,29.84,South,180,10.1,14.8,85,0.00,,,0.00,WUHU216HW,2013-12-19 11:12:00,
2013-12-19 05:13:00,51.9,47.5,29.84,SSE,158,10.5,14.8,85,0.00,,,0.00,WUHU216HW,2013-12-19 11:13:00,
2013-12-19 05:15:00,51.9,47.5,29.84,SSE,158,8.5,14.8,85,0.00,,,0.00,WUHU216HW,2013-12-19 11:15:00,
2013-12-19 05:16:00,51.9,47.5,29.84,SSE,158,8.1,14.8,85,0.00,,,0.00,WUHU216HW,2013-12-19 11:16:00,
2013-12-19 05:17:00,51.9,47.5,29.84,SE,135,6.7,13.6,85,0.00,,,0.00,WUHU216HW,2013-12-19 11:17:00,
2013-12-19 05:18:00,51.9,47.5,29.84,SSE,158,6.3,12.8,85,0.00,,,0.00,WUHU216HW,2013-12-19 11:18:00,
2013-12-19 05:21:00,51.7,47.3,29.84,SSE,158,7.6,12.3,85,0.00,,,0.00,WUHU216HW,2013-12-19 11:21:00,
2013-12-19 05:22:00,51.7,47.3,29.84,South,180,6.9,12.3,85,0.00,,,0.00,WUHU216HW,2013-12-19 11:22:00,
2013-12-19 05:23:00,51.7,47.3,29.84,SSW,203,8.7,12.3,85,0.00,,,0.00,WUHU216HW,2013-12-19 11:23:00,
2013-12-19 05:24:00,51.6,47.2,29.84,South,180,7.2,11.6,85,0.00,,,0.00,WUHU216HW,2013-12-19 11:24:00,
2013-12-19 05:26:00,51.6,47.2,29.84,South,180,4.7,11.6,85,0.00,,,0.00,WUHU216HW,2013-12-19 11:26:00,
2013-12-19 05:27:00,51.6,47.2,29.84,South,180,9.6,11.6,85,0.00,,,0.00,WUHU216HW,2013-12-19 11:27:00,
2013-12-19 05:28:00,51.4,47.3,29.84,SSE,158,9.2,11.6,86,0.00,,,0.00,WUHU216HW,2013-12-19 11:28:00,
2013-12-19 05:29:00,51.6,47.5,29.84,SSE,158,10.5,11.4,86,0.00,,,0.00,WUHU216HW,2013-12-19 11:29:00,
2013-12-19 05:31:00,51.6,47.5,29.84,SW,225,6.9,11.4,86,0.00,,,0.00,WUHU216HW,2013-12-19 11:31:00,
2013-12-19 05:32:00,51.4,47.3,29.84,SSE,158,7.8,11.4,86,0.00,,,0.00,WUHU216HW,2013-12-19 11:32:00,
2013-12-19 05:33:00,51.4,47.3,29.84,SSE,158,8.5,11.4,86,0.00,,,0.00,WUHU216HW,2013-12-19 11:33:00,
2013-12-19 05:35:00,51.4,47.3,29.84,SSW,203,8.9,12.1,86,0.00,,,0.00,WUHU216HW,2013-12-19 11:35:00,
2013-12-19 05:36:00,51.4,47.3,29.84,South,180,11.4,12.1,86,0.00,,,0.00,WUHU216HW,2013-12-19 11:36:00,
2013-12-19 05:38:00,51.4,47.3,29.84,South,180,10.1,12.1,86,0.00,,,0.00,WUHU216HW,2013-12-19 11:38:00,
2013-12-19 05:39:00,51.4,47.3,29.84,South,180,8.3,12.1,86,0.00,,,0.00,WUHU216HW,2013-12-19 11:39:00,
2013-12-19 05:40:00,51.4,47.3,29.84,SSE,158,11.4,12.1,86,0.00,,,0.00,WUHU216HW,2013-12-19 11:40:00,
2013-12-19 05:41:00,51.4,47.3,29.84,SSE,158,9.2,12.1,86,0.00,,,0.00,WUHU216HW,2013-12-19 11:41:00,
2013-12-19 05:43:00,51.4,47.3,29.84,South,180,9.8,11.4,86,0.00,,,0.00,WUHU216HW,2013-12-19 11:43:00,
2013-12-19 05:44:00,51.4,47.3,29.84,SSE,158,9.8,11.4,86,0.00,,,0.00,WUHU216HW,2013-12-19 11:44:00,
2013-12-19 05:46:00,51.4,47.3,29.84,SSE,158,6.5,11.4,86,0.00,,,0.00,WUHU216HW,2013-12-19 11:46:00,
2013-12-19 05:47:00,51.4,47.3,29.84,SW,225,7.6,11.4,86,0.00,,,0.00,WUHU216HW,2013-12-19 11:47:00,
2013-12-19 05:49:00,51.4,47.3,29.83,SSW,203,8.1,11.4,86,0.00,,,0.00,WUHU216HW,2013-12-19 11:49:00,
2013-12-19 05:50:00,51.4,47.3,29.84,South,180,6.0,11.4,86,0.00,,,0.00,WUHU216HW,2013-12-19 11:50:00,
2013-12-19 05:51:00,51.4,47.3,29.84,SSE,158,6.9,11.0,86,0.00,,,0.00,WUHU216HW,2013-12-19 11:51:00,
2013-12-19 05:52:00,51.4,47.3,29.84,SE,135,7.4,11.0,86,0.00,,,0.00,WUHU216HW,2013-12-19 11:52:00,
2013-12-19 05:54:00,51.4,47.3,29.83,SSE,158,11.6,11.6,86,0.00,,,0.00,WUHU216HW,2013-12-19 11:54:00,
2013-12-19 05:55:00,51.4,47.3,29.83,SSE,158,8.5,11.6,86,0.00,,,0.00,WUHU216HW,2013-12-19 11:55:00,
2013-12-19 05:56:00,51.4,47.3,29.83,SSE,158,11.0,11.6,86,0.00,,,0.00,WUHU216HW,2013-12-19 11:56:00,
2013-12-19 05:57:00,51.4,47.3,29.83,SSE,158,9.8,11.6,86,0.00,,,0.00,WUHU216HW,2013-12-19 11:57:00,
2013-12-19 05:59:00,51.4,47.3,29.83,SSE,158,6.3,11.6,86,0.00,,,0.00,WUHU216HW,2013-12-19 11:59:00,
2013-12-19 06:00:00,51.4,47.3,29.83,South,180,6.0,11.6,86,0.00,,,0.00,WUHU216HW,2013-12-19 12:00:00,
2013-12-19 06:01:00,51.4,47.3,29.83,South,180,6.9,11.6,86,0.00,,,0.00,WUHU216HW,2013-12-19 12:01:00,
2013-12-19 06:02:00,51.4,47.3,29.83,SSE,158,11.6,11.6,86,0.00,,,0.00,WUHU216HW,2013-12-19 12:02:00,
2013-12-19 06:04:00,51.4,47.3,29.83,South,180,8.3,11.6,86,0.00,,,0.00,WUHU216HW,2013-12-19 12:04:00,
2013-12-19 06:05:00,51.4,47.3,29.83,SSE,158,9.8,11.6,86,0.00,,,0.00,WUHU216HW,2013-12-19 12:05:00,
2013-12-19 06:07:00,51.2,47.1,29.83,SSE,158,7.6,11.6,86,0.00,,,0.00,WUHU216HW,2013-12-19 12:07:00,
2013-12-19 06:08:00,51.4,47.3,29.83,South,180,8.9,11.6,86,0.00,,,0.00,WUHU216HW,2013-12-19 12:08:00,
2013-12-19 06:09:00,51.4,47.3,29.83,SSE,158,8.1,11.6,86,0.00,,,0.00,WUHU216HW,2013-12-19 12:09:00,
2013-12-19 06:10:00,51.4,47.3,29.83,South,180,12.5,12.5,86,0.00,,,0.00,WUHU216HW,2013-12-19 12:10:00,
2013-12-19 06:11:00,51.4,47.3,29.83,SSE,158,8.3,12.5,86,0.00,,,0.00,WUHU216HW,2013-12-19 12:11:00,
2013-12-19 06:12:00,51.4,47.3,29.83,SSE,158,7.2,12.5,86,0.00,,,0.00,WUHU216HW,2013-12-19 12:12:00,
2013-12-19 06:13:00,51.6,47.5,29.83,SSW,203,7.6,12.5,86,0.00,,,0.00,WUHU216HW,2013-12-19 12:13:00,
2013-12-19 06:14:00,51.4,47.3,29.83,South,180,8.5,12.5,86,0.00,,,0.00,WUHU216HW,2013-12-19 12:14:00,
2013-12-19 06:15:00,51.4,47.3,29.82,SSE,158,8.5,12.5,86,0.00,,,0.00,WUHU216HW,2013-12-19 12:15:00,
2013-12-19 06:16:00,51.6,47.5,29.82,SSE,158,10.5,12.5,86,0.00,,,0.00,WUHU216HW,2013-12-19 12:16:00,
2013-12-19 06:17:00,51.6,47.5,29.82,SSW,203,9.8,12.5,86,0.00,,,0.00,WUHU216HW,2013-12-19 12:17:00,
2013-12-19 06:19:00,51.6,47.5,29.82,SSE,158,7.8,12.5,86,0.00,,,0.00,WUHU216HW,2013-12-19 12:19:00,
2013-12-19 06:20:00,51.6,47.5,29.82,South,180,9.6,11.9,86,0.00,,,0.00,WUHU216HW,2013-12-19 12:20:00,
2013-12-19 06:21:00,51.6,47.5,29.82,SSE,158,6.9,11.9,86,0.00,,,0.00,WUHU216HW,2013-12-19 12:21:00,
2013-12-19 06:22:00,51.7,47.6,29.82,South,180,9.2,11.9,86,0.00,,,0.00,WUHU216HW,2013-12-19 12:22:00,
2013-12-19 06:24:00,51.7,47.6,29.82,SSE,158,7.2,11.9,86,0.00,,,0.00,WUHU216HW,2013-12-19 12:24:00,
2013-12-19 06:26:00,51.7,47.6,29.82,SSE,158,9.6,11.9,86,0.00,,,0.00,WUHU216HW,2013-12-19 12:26:00,
2013-12-19 06:27:00,51.7,47.6,29.82,SSE,158,11.4,13.4,86,0.00,,,0.00,WUHU216HW,2013-12-19 12:27:00,
2013-12-19 06:29:00,51.7,47.6,29.83,SSE,158,10.5,13.4,86,0.00,,,0.00,WUHU216HW,2013-12-19 12:29:00,
2013-12-19 06:30:00,51.9,47.8,29.82,South,180,9.2,13.4,86,0.00,,,0.00,WUHU216HW,2013-12-19 12:30:00,
2013-12-19 06:31:00,51.9,47.8,29.82,SSE,158,10.5,13.4,86,0.00,,,0.00,WUHU216HW,2013-12-19 12:31:00,
2013-12-19 06:32:00,51.9,47.8,29.82,South,180,9.6,13.4,86,0.00,,,0.00,WUHU216HW,2013-12-19 12:32:00,
2013-12-19 06:33:00,51.9,47.8,29.83,SSE,158,6.5,13.4,86,0.00,,,0.00,WUHU216HW,2013-12-19 12:33:00,
2013-12-19 06:34:00,51.9,47.8,29.82,SSE,158,9.4,13.4,86,0.00,,,0.00,WUHU216HW,2013-12-19 12:34:00,
2013-12-19 06:35:00,51.9,47.8,29.83,SSE,158,9.2,13.4,86,0.00,,,0.00,WUHU216HW,2013-12-19 12:35:00,
2013-12-19 06:36:00,51.9,47.8,29.83,SSW,203,8.9,13.4,86,0.00,,,0.00,WUHU216HW,2013-12-19 12:36:00,
2013-12-19 06:37:00,51.9,47.8,29.83,SSE,158,8.3,13.4,86,0.00,,,0.00,WUHU216HW,2013-12-19 12:37:00,
2013-12-19 06:38:00,51.9,47.8,29.82,South,180,8.3,12.8,86,0.00,,,0.00,WUHU216HW,2013-12-19 12:38:00,
2013-12-19 06:39:00,51.9,47.8,29.83,SSW,203,8.9,12.8,86,0.00,,,0.00,WUHU216HW,2013-12-19 12:39:00,
2013-12-19 06:40:00,51.9,47.8,29.83,SSW,203,10.7,12.8,86,0.00,,,0.00,WUHU216HW,2013-12-19 12:40:00,
2013-12-19 06:42:00,52.1,48.0,29.83,SSE,158,7.4,12.8,86,0.00,,,0.00,WUHU216HW,2013-12-19 12:42:00,
2013-12-19 06:44:00,52.1,48.0,29.83,SSE,158,8.7,12.1,86,0.00,,,0.00,WUHU216HW,2013-12-19 12:44:00,
2013-12-19 06:45:00,52.1,48.0,29.82,South,180,11.2,13.2,86,0.00,,,0.00,WUHU216HW,2013-12-19 12:45:00,
2013-12-19 06:47:00,52.1,48.0,29.83,South,180,11.4,13.2,86,0.00,,,0.00,WUHU216HW,2013-12-19 12:47:00,
2013-12-19 06:48:00,52.1,48.0,29.83,SSE,158,8.5,13.2,86,0.00,,,0.00,WUHU216HW,2013-12-19 12:48:00,
2013-12-19 06:49:00,52.3,47.9,29.83,SSW,203,12.1,13.2,85,0.00,,,0.00,WUHU216HW,2013-12-19 12:49:00,
2013-12-19 06:50:00,52.3,48.2,29.83,South,180,9.8,13.2,86,0.00,,,0.00,WUHU216HW,2013-12-19 12:50:00,
2013-12-19 06:51:00,52.3,47.9,29.83,SSW,203,8.3,13.2,85,0.00,,,0.00,WUHU216HW,2013-12-19 12:51:00,
2013-12-19 06:52:00,52.3,47.9,29.83,SSW,203,7.6,13.2,85,0.00,,,0.00,WUHU216HW,2013-12-19 12:52:00,
2013-12-19 06:53:00,52.3,47.9,29.83,South,180,9.2,13.2,85,0.00,,,0.00,WUHU216HW,2013-12-19 12:53:00,
2013-12-19 06:55:00,52.3,47.9,29.83,SSE,158,7.6,13.2,85,0.00,,,0.00,WUHU216HW,2013-12-19 12:55:00,
2013-12-19 06:56:00,52.3,47.9,29.83,South,180,7.4,12.1,85,0.00,,,0.00,WUHU216HW,2013-12-19 12:56:00,
2013-12-19 06:57:00,52.3,47.9,29.83,SSW,203,7.8,12.1,85,0.00,,,0.00,WUHU216HW,2013-12-19 12:57:00,
2013-12-19 06:58:00,52.3,47.9,29.83,South,180,6.5,12.1,85,0.00,,,0.00,WUHU216HW,2013-12-19 12:58:00,
2013-12-19 07:00:00,52.3,47.9,29.83,South,180,7.8,9.8,85,0.00,,,0.00,WUHU216HW,2013-12-19 13:00:00,
2013-12-19 07:01:00,52.3,47.9,29.83,SSW,203,9.8,10.7,85,0.00,,,0.00,WUHU216HW,2013-12-19 13:01:00,
2013-12-19 07:02:00,52.3,47.9,29.83,SSE,158,8.7,10.7,85,0.00,,,0.00,WUHU216HW,2013-12-19 13:02:00,
2013-12-19 07:04:00,52.3,47.9,29.83,SSE,158,10.1,11.4,85,0.00,,,0.00,WUHU216HW,2013-12-19 13:04:00,
2013-12-19 07:05:00,52.5,48.1,29.82,SSW,203,9.2,11.4,85,0.00,,,0.00,WUHU216HW,2013-12-19 13:05:00,
2013-12-19 07:06:00,52.5,48.1,29.83,South,180,7.4,11.4,85,0.00,,,0.00,WUHU216HW,2013-12-19 13:06:00,
2013-12-19 07:07:00,52.5,48.1,29.82,SSE,158,8.1,12.5,85,0.00,,,0.00,WUHU216HW,2013-12-19 13:07:00,
2013-12-19 07:09:00,52.6,48.2,29.82,SSE,158,11.6,12.5,85,0.00,,,0.00,WUHU216HW,2013-12-19 13:09:00,
2013-12-19 07:10:00,52.6,48.2,29.82,SSW,203,6.9,12.5,85,0.00,,,0.00,WUHU216HW,2013-12-19 13:10:00,
2013-12-19 07:11:00,52.6,48.2,29.82,SSE,158,7.8,12.5,85,0.00,,,0.00,WUHU216HW,2013-12-19 13:11:00,
2013-12-19 07:12:00,52.6,48.2,29.82,SSW,203,9.4,12.5,85,0.00,,,0.00,WUHU216HW,2013-12-19 13:12:00,
2013-12-19 07:14:00,52.6,48.2,29.82,SSE,158,6.3,12.5,85,0.00,,,0.00,WUHU216HW,2013-12-19 13:14:00,
2013-12-19 07:15:00,52.6,48.2,29.82,South,180,8.5,12.5,85,0.00,,,0.00,WUHU216HW,2013-12-19 13:15:00,
2013-12-19 07:16:00,52.6,48.2,29.82,SSE,158,8.5,11.6,85,0.00,,,0.00,WUHU216HW,2013-12-19 13:16:00,
2013-12-19 07:17:00,52.6,48.2,29.82,SSW,203,7.8,11.6,85,0.00,,,0.00,WUHU216HW,2013-12-19 13:17:00,
2013-12-19 07:19:00,52.6,48.2,29.82,South,180,10.1,11.6,85,0.00,,,0.00,WUHU216HW,2013-12-19 13:19:00,
2013-12-19 07:20:00,52.6,48.2,29.82,SW,225,4.3,11.6,85,0.00,,,0.00,WUHU216HW,2013-12-19 13:20:00,
2013-12-19 07:21:00,52.6,47.9,29.82,SSW,203,9.6,11.6,84,0.00,,,0.00,WUHU216HW,2013-12-19 13:21:00,
2013-12-19 07:23:00,52.6,48.2,29.83,South,180,9.6,11.6,85,0.00,,,0.00,WUHU216HW,2013-12-19 13:23:00,
2013-12-19 07:24:00,52.6,48.2,29.82,South,180,6.9,11.6,85,0.00,,,0.00,WUHU216HW,2013-12-19 13:24:00,
2013-12-19 07:25:00,52.6,47.9,29.82,SSW,203,8.7,11.6,84,0.00,,,0.00,WUHU216HW,2013-12-19 13:25:00,
2013-12-19 07:26:00,52.6,47.9,29.83,SSW,203,9.2,11.6,84,0.00,,,0.00,WUHU216HW,2013-12-19 13:26:00,
2013-12-19 07:27:00,52.6,48.2,29.82,SSE,158,9.8,12.8,85,0.00,,,0.00,WUHU216HW,2013-12-19 13:27:00,
2013-12-19 07:28:00,52.6,48.2,29.82,SSE,158,6.7,12.8,85,0.00,,,0.00,WUHU216HW,2013-12-19 13:28:00,
2013-12-19 07:29:00,52.8,48.1,29.83,SSE,158,8.5,12.8,84,0.00,,,0.00,WUHU216HW,2013-12-19 13:29:00,
2013-12-19 07:30:00,52.8,48.1,29.83,South,180,7.8,12.8,84,0.00,,,0.00,WUHU216HW,2013-12-19 13:30:00,
2013-12-19 07:31:00,52.8,48.1,29.83,SSE,158,5.8,12.8,84,0.00,,,0.00,WUHU216HW,2013-12-19 13:31:00,
2013-12-19 07:32:00,52.8,48.1,29.83,South,180,9.8,12.8,84,0.00,,,0.00,WUHU216HW,2013-12-19 13:32:00,
2013-12-19 07:34:00,52.8,48.1,29.83,SSW,203,11.9,13.2,84,0.00,,,0.00,WUHU216HW,2013-12-19 13:34:00,
2013-12-19 07:36:00,52.8,48.1,29.83,SSE,158,10.7,13.2,84,0.00,,,0.00,WUHU216HW,2013-12-19 13:36:00,
2013-12-19 07:38:00,53.0,48.3,29.83,SSE,158,7.6,13.2,84,0.00,,,0.00,WUHU216HW,2013-12-19 13:38:00,
2013-12-19 07:39:00,53.0,48.3,29.83,SE,135,7.4,13.2,84,0.00,,,0.00,WUHU216HW,2013-12-19 13:39:00,
2013-12-19 07:40:00,53.0,48.3,29.83,South,180,8.5,13.2,84,0.00,,,0.00,WUHU216HW,2013-12-19 13:40:00,
2013-12-19 07:41:00,53.0,48.3,29.83,SSE,158,11.2,13.2,84,0.00,,,0.00,WUHU216HW,2013-12-19 13:41:00,
2013-12-19 07:43:00,53.0,48.3,29.83,South,180,6.5,11.9,84,0.00,,,0.00,WUHU216HW,2013-12-19 13:43:00,
2013-12-19 07:44:00,53.0,48.3,29.83,South,180,8.3,11.9,84,0.00,,,0.00,WUHU216HW,2013-12-19 13:44:00,
2013-12-19 07:46:00,53.2,48.5,29.83,SSE,158,8.7,11.4,84,0.00,,,0.00,WUHU216HW,2013-12-19 13:46:00,
2013-12-19 07:48:00,53.2,48.5,29.83,SSE,158,5.8,12.1,84,0.00,,,0.00,WUHU216HW,2013-12-19 13:48:00,
2013-12-19 07:49:00,53.2,48.5,29.83,South,180,8.1,12.1,84,0.00,,,0.00,WUHU216HW,2013-12-19 13:49:00,
2013-12-19 07:51:00,53.2,48.5,29.83,SSW,203,6.9,12.1,84,0.00,,,0.00,WUHU216HW,2013-12-19 13:51:00,
2013-12-19 07:52:00,53.2,48.5,29.83,SSE,158,8.9,12.1,84,0.00,,,0.00,WUHU216HW,2013-12-19 13:52:00,
2013-12-19 07:53:00,53.2,48.5,29.83,SSE,158,5.4,12.1,84,0.00,,,0.00,WUHU216HW,2013-12-19 13:53:00,
2013-12-19 07:54:00,53.2,48.5,29.83,SSE,158,6.5,12.1,84,0.00,,,0.00,WUHU216HW,2013-12-19 13:54:00,
2013-12-19 07:56:00,53.4,48.7,29.83,South,180,5.4,12.1,84,0.00,,,0.00,WUHU216HW,2013-12-19 13:56:00,
2013-12-19 07:57:00,53.2,48.5,29.83,SSE,158,8.3,11.4,84,0.00,,,0.00,WUHU216HW,2013-12-19 13:57:00,
2013-12-19 07:58:00,53.2,48.5,29.83,SSE,158,8.7,11.4,84,0.00,,,0.00,WUHU216HW,2013-12-19 13:58:00,
2013-12-19 08:00:00,53.2,48.5,29.83,SSW,203,8.1,11.4,84,0.00,,,0.00,WUHU216HW,2013-12-19 14:00:00,
2013-12-19 08:01:00,53.2,48.5,29.83,SSW,203,8.3,11.4,84,0.00,,,0.00,WUHU216HW,2013-12-19 14:01:00,
2013-12-19 08:02:00,53.4,48.7,29.83,South,180,9.2,11.4,84,0.00,,,0.00,WUHU216HW,2013-12-19 14:02:00,
2013-12-19 08:04:00,53.4,48.7,29.83,SE,135,10.5,12.3,84,0.00,,,0.00,WUHU216HW,2013-12-19 14:04:00,
2013-12-19 08:05:00,53.4,48.7,29.83,South,180,12.1,12.3,84,0.00,,,0.00,WUHU216HW,2013-12-19 14:05:00,
2013-12-19 08:07:00,53.4,48.7,29.83,SSE,158,9.8,12.3,84,0.00,,,0.00,WUHU216HW,2013-12-19 14:07:00,
2013-12-19 08:08:00,53.5,48.8,29.83,South,180,7.6,12.3,84,0.00,,,0.00,WUHU216HW,2013-12-19 14:08:00,
2013-12-19 08:09:00,53.5,48.8,29.83,South,180,7.6,12.3,84,0.00,,,0.00,WUHU216HW,2013-12-19 14:09:00,
2013-12-19 08:10:00,53.5,48.8,29.83,SSW,203,8.5,12.3,84,0.00,,,0.00,WUHU216HW,2013-12-19 14:10:00,
2013-12-19 08:12:00,53.5,48.8,29.83,SSW,203,8.5,12.3,84,0.00,,,0.00,WUHU216HW,2013-12-19 14:12:00,
2013-12-19 08:13:00,53.5,48.8,29.83,South,180,8.9,12.3,84,0.00,,,0.00,WUHU216HW,2013-12-19 14:13:00,
2013-12-19 08:14:00,53.7,49.0,29.83,SSW,203,7.2,12.1,84,0.00,,,0.00,WUHU216HW,2013-12-19 14:14:00,
2013-12-19 08:16:00,53.7,48.7,29.83,SSW,203,8.3,11.4,83,0.00,,,0.00,WUHU216HW,2013-12-19 14:16:00,
2013-12-19 08:17:00,53.7,48.7,29.83,SSW,203,5.6,11.4,83,0.00,,,0.00,WUHU216HW,2013-12-19 14:17:00,
2013-12-19 08:18:00,53.7,48.7,29.83,SSE,158,6.3,11.4,83,0.00,,,0.00,WUHU216HW,2013-12-19 14:18:00,
2013-12-19 08:19:00,53.7,48.7,29.83,SW,225,5.1,11.4,83,0.00,,,0.00,WUHU216HW,2013-12-19 14:19:00,
2013-12-19 08:21:00,53.7,48.7,29.83,SSW,203,7.8,11.4,83,0.00,,,0.00,WUHU216HW,2013-12-19 14:21:00,
2013-12-19 08:22:00,53.7,48.7,29.83,South,180,8.7,10.5,83,0.00,,,0.00,WUHU216HW,2013-12-19 14:22:00,
2013-12-19 08:23:00,53.7,49.0,29.83,South,180,8.1,10.5,84,0.00,,,0.00,WUHU216HW,2013-12-19 14:23:00,
2013-12-19 08:24:00,53.7,48.7,29.83,South,180,7.4,10.5,83,0.00,,,0.00,WUHU216HW,2013-12-19 14:24:00,
2013-12-19 08:27:00,53.9,48.9,29.83,SSE,158,9.4,10.5,83,0.00,,,0.00,WUHU216HW,2013-12-19 14:27:00,
2013-12-19 08:28:00,53.9,48.9,29.83,SSE,158,8.1,10.5,83,0.00,,,0.00,WUHU216HW,2013-12-19 14:28:00,
2013-12-19 08:29:00,54.1,49.1,29.83,SSW,203,5.4,10.7,83,0.00,,,0.00,WUHU216HW,2013-12-19 14:29:00,
2013-12-19 08:30:00,54.1,49.1,29.83,SSW,203,5.4,10.7,83,0.00,,,0.00,WUHU216HW,2013-12-19 14:30:00,
2013-12-19 08:32:00,54.3,49.3,29.83,South,180,7.8,10.7,83,0.00,,,0.00,WUHU216HW,2013-12-19 14:32:00,
2013-12-19 08:33:00,54.4,49.4,29.83,SSE,158,9.6,10.7,83,0.00,,,0.00,WUHU216HW,2013-12-19 14:33:00,
2013-12-19 08:35:00,54.4,49.4,29.83,SSW,203,8.3,10.7,83,0.00,,,0.00,WUHU216HW,2013-12-19 14:35:00,
2013-12-19 08:37:00,54.6,49.2,29.83,SSE,158,5.4,10.7,82,0.00,,,0.00,WUHU216HW,2013-12-19 14:37:00,
2013-12-19 08:38:00,54.6,49.2,29.84,SSE,158,9.8,10.7,82,0.00,,,0.00,WUHU216HW,2013-12-19 14:38:00,
2013-12-19 08:40:00,54.8,49.4,29.84,SSW,203,6.3,10.1,82,0.00,,,0.00,WUHU216HW,2013-12-19 14:40:00,
2013-12-19 08:42:00,55.0,49.6,29.84,SW,225,6.3,10.1,82,0.00,,,0.00,WUHU216HW,2013-12-19 14:42:00,
2013-12-19 08:43:00,55.2,49.8,29.84,SSE,158,8.7,10.1,82,0.00,,,0.00,WUHU216HW,2013-12-19 14:43:00,
2013-12-19 08:45:00,55.5,50.1,29.84,South,180,8.3,11.4,82,0.00,,,0.00,WUHU216HW,2013-12-19 14:45:00,
2013-12-19 08:47:00,55.5,49.8,29.84,South,180,8.3,11.4,81,0.00,,,0.00,WUHU216HW,2013-12-19 14:47:00,
2013-12-19 08:48:00,55.5,49.8,29.84,SSW,203,9.8,11.4,81,0.00,,,0.00,WUHU216HW,2013-12-19 14:48:00,
2013-12-19 08:49:00,55.5,50.1,29.84,South,180,8.7,11.4,82,0.00,,,0.00,WUHU216HW,2013-12-19 14:49:00,
2013-12-19 08:50:00,55.5,49.8,29.84,South,180,8.7,11.4,81,0.00,,,0.00,WUHU216HW,2013-12-19 14:50:00,
2013-12-19 08:52:00,55.5,49.8,29.84,SSE,158,7.8,11.4,81,0.00,,,0.00,WUHU216HW,2013-12-19 14:52:00,
2013-12-19 08:53:00,55.5,49.8,29.84,South,180,10.7,11.4,81,0.00,,,0.00,WUHU216HW,2013-12-19 14:53:00,
2013-12-19 08:54:00,55.5,50.1,29.84,SSE,158,9.2,11.4,82,0.00,,,0.00,WUHU216HW,2013-12-19 14:54:00,
2013-12-19 08:56:00,55.5,50.1,29.84,SSW,203,4.7,11.4,82,0.00,,,0.00,WUHU216HW,2013-12-19 14:56:00,
2013-12-19 08:57:00,55.5,50.1,29.84,SSE,158,8.1,11.4,82,0.00,,,0.00,WUHU216HW,2013-12-19 14:57:00,
2013-12-19 08:58:00,55.5,50.1,29.84,SE,135,5.1,11.4,82,0.00,,,0.00,WUHU216HW,2013-12-19 14:58:00,
2013-12-19 09:00:00,55.7,50.3,29.84,SSW,203,10.5,11.4,82,0.00,,,0.00,WUHU216HW,2013-12-19 15:00:00,
2013-12-19 09:01:00,55.5,50.1,29.85,South,180,6.9,11.4,82,0.00,,,0.00,WUHU216HW,2013-12-19 15:01:00,
2013-12-19 09:02:00,55.7,50.3,29.85,SSE,158,7.2,11.6,82,0.00,,,0.00,WUHU216HW,2013-12-19 15:02:00,
2013-12-19 09:03:00,55.9,50.5,29.85,South,180,9.8,11.6,82,0.00,,,0.00,WUHU216HW,2013-12-19 15:03:00,
2013-12-19 09:05:00,55.9,50.5,29.84,SSE,158,6.3,11.6,82,0.00,,,0.00,WUHU216HW,2013-12-19 15:05:00,
2013-12-19 09:06:00,55.9,50.5,29.84,SSW,203,10.7,11.9,82,0.00,,,0.00,WUHU216HW,2013-12-19 15:06:00,
2013-12-19 09:07:00,56.1,50.7,29.85,SSW,203,9.2,11.9,82,0.00,,,0.00,WUHU216HW,2013-12-19 15:07:00,
2013-12-19 09:08:00,56.1,50.7,29.84,SSW,203,9.4,11.9,82,0.00,,,0.00,WUHU216HW,2013-12-19 15:08:00,
2013-12-19 09:10:00,56.2,50.5,29.84,South,180,11.6,12.3,81,0.00,,,0.00,WUHU216HW,2013-12-19 15:10:00,
2013-12-19 09:11:00,56.2,50.5,29.84,SSW,203,12.8,12.8,81,0.00,,,0.00,WUHU216HW,2013-12-19 15:11:00,
2013-12-19 09:13:00,56.2,50.5,29.84,SSW,203,8.7,12.8,81,0.00,,,0.00,WUHU216HW,2013-12-19 15:13:00,
2013-12-19 09:15:00,56.6,50.9,29.84,SSW,203,10.5,13.2,81,0.00,,,0.00,WUHU216HW,2013-12-19 15:15:00,
2013-12-19 09:16:00,56.8,51.1,29.85,South,180,12.5,13.2,81,0.00,,,0.00,WUHU216HW,2013-12-19 15:16:00,
2013-12-19 09:18:00,56.8,51.1,29.85,South,180,8.3,13.2,81,0.00,,,0.00,WUHU216HW,2013-12-19 15:18:00,
2013-12-19 09:19:00,56.8,51.1,29.85,South,180,8.3,13.2,81,0.00,,,0.00,WUHU216HW,2013-12-19 15:19:00,
2013-12-19 09:20:00,57.0,51.3,29.85,South,180,9.8,14.1,81,0.00,,,0.00,WUHU216HW,2013-12-19 15:20:00,
2013-12-19 09:21:00,57.0,51.3,29.84,South,180,11.4,14.3,81,0.00,,,0.00,WUHU216HW,2013-12-19 15:21:00,
2013-12-19 09:23:00,57.0,51.3,29.85,SSE,158,7.4,14.3,81,0.00,,,0.00,WUHU216HW,2013-12-19 15:23:00,
2013-12-19 09:24:00,57.0,51.3,29.85,South,180,11.0,14.3,81,0.00,,,0.00,WUHU216HW,2013-12-19 15:24:00,
2013-12-19 09:25:00,57.1,51.4,29.85,South,180,8.5,14.3,81,0.00,,,0.00,WUHU216HW,2013-12-19 15:25:00,
2013-12-19 09:27:00,57.3,51.6,29.85,SSW,203,9.2,14.3,81,0.00,,,0.00,WUHU216HW,2013-12-19 15:27:00,
2013-12-19 09:28:00,57.3,51.6,29.85,SSW,203,11.4,14.3,81,0.00,,,0.00,WUHU216HW,2013-12-19 15:28:00,
2013-12-19 09:29:00,57.1,51.4,29.85,SSW,203,8.5,14.3,81,0.00,,,0.00,WUHU216HW,2013-12-19 15:29:00,
2013-12-19 09:30:00,57.3,51.6,29.85,SSW,203,9.2,14.3,81,0.00,,,0.00,WUHU216HW,2013-12-19 15:30:00,
2013-12-19 09:32:00,57.5,51.4,29.85,SSE,158,11.4,13.4,80,0.00,,,0.00,WUHU216HW,2013-12-19 15:32:00,
2013-12-19 09:34:00,57.5,51.4,29.85,South,180,9.4,13.4,80,0.00,,,0.00,WUHU216HW,2013-12-19 15:34:00,
2013-12-19 09:36:00,57.7,51.6,29.85,South,180,12.8,13.4,80,0.00,,,0.00,WUHU216HW,2013-12-19 15:36:00,
2013-12-19 09:37:00,57.7,51.6,29.85,SSW,203,8.5,13.4,80,0.00,,,0.00,WUHU216HW,2013-12-19 15:37:00,
2013-12-19 09:39:00,58.0,51.9,29.85,SW,225,11.6,13.4,80,0.00,,,0.00,WUHU216HW,2013-12-19 15:39:00,
2013-12-19 09:41:00,58.4,52.0,29.85,SSE,158,11.0,16.1,79,0.00,,,0.00,WUHU216HW,2013-12-19 15:41:00,
2013-12-19 09:43:00,58.4,52.0,29.85,SSW,203,11.4,16.3,79,0.00,,,0.00,WUHU216HW,2013-12-19 15:43:00,
2013-12-19 09:44:00,58.4,52.0,29.84,SW,225,12.8,16.3,79,0.00,,,0.00,WUHU216HW,2013-12-19 15:44:00,
2013-12-19 09:45:00,58.6,52.2,29.85,SSW,203,7.8,16.3,79,0.00,,,0.00,WUHU216HW,2013-12-19 15:45:00,
2013-12-19 09:47:00,58.8,52.4,29.84,SSE,158,11.9,16.3,79,0.00,,,0.00,WUHU216HW,2013-12-19 15:47:00,
2013-12-19 09:48:00,58.8,52.4,29.85,SSE,158,13.6,16.3,79,0.00,,,0.00,WUHU216HW,2013-12-19 15:48:00,
2013-12-19 09:49:00,58.8,52.0,29.84,SSW,203,13.9,16.3,78,0.00,,,0.00,WUHU216HW,2013-12-19 15:49:00,
2013-12-19 09:50:00,58.8,52.4,29.84,SSW,203,10.3,16.3,79,0.00,,,0.00,WUHU216HW,2013-12-19 15:50:00,
2013-12-19 09:52:00,59.1,52.3,29.84,SSE,158,10.1,16.3,78,0.00,,,0.00,WUHU216HW,2013-12-19 15:52:00,
2013-12-19 09:53:00,59.1,52.3,29.84,SSW,203,12.5,16.1,78,0.00,,,0.00,WUHU216HW,2013-12-19 15:53:00,
2013-12-19 09:54:00,59.1,52.3,29.84,SW,225,16.3,16.3,78,0.00,,,0.00,WUHU216HW,2013-12-19 15:54:00,
2013-12-19 09:55:00,59.1,52.3,29.84,SSW,203,13.0,16.3,78,0.00,,,0.00,WUHU216HW,2013-12-19 15:55:00,
2013-12-19 09:56:00,59.1,52.3,29.84,SSE,158,14.8,16.3,78,0.00,,,0.00,WUHU216HW,2013-12-19 15:56:00,
2013-12-19 09:58:00,58.8,52.0,29.84,South,180,17.7,17.7,78,0.00,,,0.00,WUHU216HW,2013-12-19 15:58:00,
2013-12-19 09:59:00,58.8,52.0,29.84,SSW,203,11.4,17.7,78,0.00,,,0.00,WUHU216HW,2013-12-19 15:59:00,
2013-12-19 10:00:00,58.8,52.0,29.84,South,180,12.1,17.7,78,0.00,,,0.00,WUHU216HW,2013-12-19 16:00:00,
2013-12-19 10:01:00,58.9,52.1,29.84,SSW,203,12.1,17.7,78,0.00,,,0.00,WUHU216HW,2013-12-19 16:01:00,
2013-12-19 10:03:00,58.9,52.1,29.84,South,180,15.7,17.7,78,0.00,,,0.00,WUHU216HW,2013-12-19 16:03:00,
2013-12-19 10:04:00,59.1,52.3,29.84,SW,225,7.6,17.7,78,0.00,,,0.00,WUHU216HW,2013-12-19 16:04:00,
2013-12-19 10:05:00,59.1,52.3,29.84,SW,225,7.6,17.7,78,0.00,,,0.00,WUHU216HW,2013-12-19 16:05:00,
2013-12-19 10:07:00,59.3,52.5,29.84,SSW,203,12.8,17.7,78,0.00,,,0.00,WUHU216HW,2013-12-19 16:07:00,
2013-12-19 10:08:00,59.3,52.5,29.84,SSW,203,12.8,17.7,78,0.00,,,0.00,WUHU216HW,2013-12-19 16:08:00,
2013-12-19 10:09:00,59.5,52.7,29.84,SSE,158,13.4,17.7,78,0.00,,,0.00,WUHU216HW,2013-12-19 16:09:00,
2013-12-19 10:10:00,59.7,52.9,29.84,SSE,158,16.3,16.3,78,0.00,,,0.00,WUHU216HW,2013-12-19 16:10:00,
2013-12-19 10:11:00,59.7,52.9,29.84,SSE,158,16.3,16.3,78,0.00,,,0.00,WUHU216HW,2013-12-19 16:11:00,
2013-12-19 10:13:00,59.8,52.7,29.84,South,180,12.1,16.3,77,0.00,,,0.00,WUHU216HW,2013-12-19 16:13:00,
2013-12-19 10:14:00,59.8,52.7,29.83,SSW,203,9.2,16.3,77,0.00,,,0.00,WUHU216HW,2013-12-19 16:14:00,
2013-12-19 10:15:00,60.0,52.9,29.83,South,180,9.4,16.3,77,0.00,,,0.00,WUHU216HW,2013-12-19 16:15:00,
2013-12-19 10:16:00,59.8,52.7,29.83,South,180,14.1,16.8,77,0.00,,,0.00,WUHU216HW,2013-12-19 16:16:00,
2013-12-19 10:18:00,59.8,52.7,29.83,SSW,203,14.8,16.8,77,0.00,,,0.00,WUHU216HW,2013-12-19 16:18:00,
2013-12-19 10:19:00,59.8,52.7,29.83,SSW,203,8.1,16.8,77,0.00,,,0.00,WUHU216HW,2013-12-19 16:19:00,
2013-12-19 10:20:00,59.8,52.7,29.83,SSW,203,8.1,16.8,77,0.00,,,0.00,WUHU216HW,2013-12-19 16:20:00,
2013-12-19 10:21:00,60.0,52.9,29.83,SSW,203,15.7,16.8,77,0.00,,,0.00,WUHU216HW,2013-12-19 16:21:00,
2013-12-19 10:23:00,60.0,52.9,29.83,South,180,13.9,18.6,77,0.00,,,0.00,WUHU216HW,2013-12-19 16:23:00,
2013-12-19 10:24:00,59.8,52.7,29.83,South,180,12.8,18.6,77,0.00,,,0.00,WUHU216HW,2013-12-19 16:24:00,
2013-12-19 10:25:00,59.8,52.7,29.83,SSW,203,13.9,18.6,77,0.00,,,0.00,WUHU216HW,2013-12-19 16:25:00,
2013-12-19 10:26:00,59.8,52.7,29.83,SSE,158,13.9,18.6,77,0.00,,,0.00,WUHU216HW,2013-12-19 16:26:00,
2013-12-19 10:28:00,59.8,52.7,29.83,South,180,7.6,18.6,77,0.00,,,0.00,WUHU216HW,2013-12-19 16:28:00,
2013-12-19 10:30:00,59.8,53.0,29.82,SSW,203,11.9,18.6,78,0.00,,,0.00,WUHU216HW,2013-12-19 16:30:00,
2013-12-19 10:31:00,59.8,53.0,29.82,South,180,14.8,18.6,78,0.00,,,0.00,WUHU216HW,2013-12-19 16:31:00,
2013-12-19 10:33:00,59.8,53.0,29.83,South,180,8.5,15.0,78,0.00,,,0.00,WUHU216HW,2013-12-19 16:33:00,
2013-12-19 10:34:00,59.8,53.0,29.82,SSE,158,15.2,15.2,78,0.00,,,0.00,WUHU216HW,2013-12-19 16:34:00,
2013-12-19 10:35:00,59.8,53.0,29.82,SSW,203,11.2,16.8,78,0.00,,,0.00,WUHU216HW,2013-12-19 16:35:00,
2013-12-19 10:36:00,59.8,53.0,29.82,South,180,12.1,16.8,78,0.00,,,0.00,WUHU216HW,2013-12-19 16:36:00,
2013-12-19 10:38:00,59.8,53.0,29.82,South,180,13.6,16.8,78,0.00,,,0.00,WUHU216HW,2013-12-19 16:38:00,
2013-12-19 10:39:00,59.8,53.0,29.82,SSW,203,13.6,16.8,78,0.00,,,0.00,WUHU216HW,2013-12-19 16:39:00,
2013-12-19 10:41:00,59.8,53.0,29.82,SSE,158,12.3,16.8,78,0.00,,,0.00,WUHU216HW,2013-12-19 16:41:00,
2013-12-19 10:42:00,59.8,53.0,29.82,SSE,158,9.6,16.8,78,0.00,,,0.00,WUHU216HW,2013-12-19 16:42:00,
2013-12-19 10:43:00,59.8,53.0,29.82,South,180,15.7,16.8,78,0.00,,,0.00,WUHU216HW,2013-12-19 16:43:00,
2013-12-19 10:45:00,59.8,53.0,29.82,South,180,6.9,16.8,78,0.00,,,0.00,WUHU216HW,2013-12-19 16:45:00,
2013-12-19 10:46:00,59.8,53.3,29.82,South,180,11.9,16.3,79,0.00,,,0.00,WUHU216HW,2013-12-19 16:46:00,
2013-12-19 10:47:00,59.8,53.3,29.82,South,180,15.0,16.3,79,0.00,,,0.00,WUHU216HW,2013-12-19 16:47:00,
2013-12-19 10:48:00,59.8,53.0,29.82,SSE,158,16.1,16.3,78,0.00,,,0.00,WUHU216HW,2013-12-19 16:48:00,
2013-12-19 10:50:00,60.0,53.2,29.82,SSW,203,11.9,16.1,78,0.00,,,0.00,WUHU216HW,2013-12-19 16:50:00,
2013-12-19 10:51:00,60.0,53.2,29.82,SW,225,11.4,16.1,78,0.00,,,0.00,WUHU216HW,2013-12-19 16:51:00,
2013-12-19 10:52:00,60.2,53.4,29.82,SSW,203,11.4,16.1,78,0.00,,,0.00,WUHU216HW,2013-12-19 16:52:00,
2013-12-19 10:53:00,60.2,53.4,29.82,SSW,203,14.3,16.1,78,0.00,,,0.00,WUHU216HW,2013-12-19 16:53:00,
2013-12-19 10:56:00,60.6,53.8,29.82,SSW,203,8.5,17.7,78,0.00,,,0.00,WUHU216HW,2013-12-19 16:56:00,
2013-12-19 10:57:00,60.9,54.1,29.82,South,180,13.2,17.7,78,0.00,,,0.00,WUHU216HW,2013-12-19 16:57:00,
2013-12-19 10:58:00,60.9,53.7,29.82,SSW,203,15.7,17.7,77,0.00,,,0.00,WUHU216HW,2013-12-19 16:58:00,
2013-12-19 10:59:00,61.1,53.6,29.82,South,180,11.2,17.7,76,0.00,,,0.00,WUHU216HW,2013-12-19 16:59:00,
2013-12-19 11:01:00,61.3,53.8,29.82,South,180,12.8,17.7,76,0.00,,,0.00,WUHU216HW,2013-12-19 17:01:00,
2013-12-19 11:02:00,61.5,54.0,29.81,SSE,158,12.5,17.7,76,0.00,,,0.00,WUHU216HW,2013-12-19 17:02:00,
2013-12-19 11:04:00,61.6,54.1,29.81,SSW,203,16.6,16.8,76,0.00,,,0.00,WUHU216HW,2013-12-19 17:04:00,
2013-12-19 11:06:00,61.8,54.3,29.81,SSE,158,11.6,16.8,76,0.00,,,0.00,WUHU216HW,2013-12-19 17:06:00,
2013-12-19 11:07:00,62.0,54.4,29.81,SSE,158,16.3,16.8,76,0.00,,,0.00,WUHU216HW,2013-12-19 17:07:00,
2013-12-19 11:09:00,62.0,54.4,29.81,SSE,158,13.0,19.2,76,0.00,,,0.00,WUHU216HW,2013-12-19 17:09:00,
2013-12-19 11:10:00,62.0,54.4,29.81,SSE,158,15.2,19.2,76,0.00,,,0.00,WUHU216HW,2013-12-19 17:10:00,
2013-12-19 11:11:00,62.2,54.6,29.81,South,180,13.4,19.2,76,0.00,,,0.00,WUHU216HW,2013-12-19 17:11:00,
2013-12-19 11:12:00,62.2,54.6,29.81,South,180,15.7,19.2,76,0.00,,,0.00,WUHU216HW,2013-12-19 17:12:00,
2013-12-19 11:14:00,62.2,54.6,29.81,SSW,203,11.4,19.2,76,0.00,,,0.00,WUHU216HW,2013-12-19 17:14:00,
2013-12-19 11:15:00,62.4,54.8,29.81,SSE,158,9.2,19.2,76,0.00,,,0.00,WUHU216HW,2013-12-19 17:15:00,
2013-12-19 11:16:00,62.2,54.6,29.80,SW,225,12.5,19.2,76,0.00,,,0.00,WUHU216HW,2013-12-19 17:16:00,
2013-12-19 11:17:00,62.4,54.8,29.80,South,180,12.3,19.2,76,0.00,,,0.00,WUHU216HW,2013-12-19 17:17:00,
2013-12-19 11:20:00,62.4,54.8,29.80,SSW,203,11.9,20.8,76,0.00,,,0.00,WUHU216HW,2013-12-19 17:20:00,
2013-12-19 11:21:00,62.5,54.9,29.80,SW,225,12.8,20.8,76,0.00,,,0.00,WUHU216HW,2013-12-19 17:21:00,
2013-12-19 11:22:00,62.5,54.9,29.80,South,180,12.1,20.8,76,0.00,,,0.00,WUHU216HW,2013-12-19 17:22:00,
2013-12-19 11:25:00,62.5,54.9,29.80,SE,135,12.1,20.8,76,0.00,,,0.00,WUHU216HW,2013-12-19 17:25:00,
2013-12-19 11:26:00,62.5,54.9,29.80,South,180,13.6,20.8,76,0.00,,,0.00,WUHU216HW,2013-12-19 17:26:00,
2013-12-19 11:27:00,62.5,54.9,29.80,SE,135,9.4,20.8,76,0.00,,,0.00,WUHU216HW,2013-12-19 17:27:00,
2013-12-19 11:28:00,62.5,54.9,29.80,SSE,158,11.0,19.2,76,0.00,,,0.00,WUHU216HW,2013-12-19 17:28:00,
2013-12-19 11:30:00,62.4,54.8,29.80,South,180,8.5,16.1,76,0.00,,,0.00,WUHU216HW,2013-12-19 17:30:00,
2013-12-19 11:31:00,62.5,54.9,29.80,SSW,203,11.0,16.1,76,0.00,,,0.00,WUHU216HW,2013-12-19 17:31:00,
2013-12-19 11:32:00,62.5,55.3,29.80,SSW,203,9.4,16.1,77,0.00,,,0.00,WUHU216HW,2013-12-19 17:32:00,
2013-12-19 11:33:00,62.5,55.3,29.80,SSE,158,12.1,13.6,77,0.00,,,0.00,WUHU216HW,2013-12-19 17:33:00,
2013-12-19 11:36:00,62.7,55.5,29.79,SSE,158,12.1,12.1,77,0.00,,,0.00,WUHU216HW,2013-12-19 17:36:00,
2013-12-19 11:37:00,62.7,55.5,29.79,South,180,10.5,12.1,77,0.00,,,0.00,WUHU216HW,2013-12-19 17:37:00,
2013-12-19 11:38:00,62.7,55.5,29.79,South,180,10.5,12.1,77,0.00,,,0.00,WUHU216HW,2013-12-19 17:38:00,
2013-12-19 11:41:00,63.1,55.5,29.79,South,180,7.6,12.1,76,0.00,,,0.00,WUHU216HW,2013-12-19 17:41:00,
2013-12-19 11:42:00,63.3,55.7,29.79,South,180,10.5,12.1,76,0.00,,,0.00,WUHU216HW,2013-12-19 17:42:00,
2013-12-19 11:43:00,63.4,55.8,29.79,SSW,203,8.3,12.1,76,0.00,,,0.00,WUHU216HW,2013-12-19 17:43:00,
2013-12-19 11:47:00,64.0,56.0,29.78,South,180,15.0,15.0,75,0.00,,,0.00,WUHU216HW,2013-12-19 17:47:00,
2013-12-19 11:48:00,64.2,55.9,29.78,SSW,203,12.8,15.0,74,0.00,,,0.00,WUHU216HW,2013-12-19 17:48:00,
2013-12-19 11:49:00,64.2,55.9,29.78,SSW,203,12.8,15.0,74,0.00,,,0.00,WUHU216HW,2013-12-19 17:49:00,
2013-12-19 11:52:00,64.2,55.9,29.79,SSE,158,14.3,16.3,74,0.00,,,0.00,WUHU216HW,2013-12-19 17:52:00,
2013-12-19 11:53:00,64.2,55.9,29.78,South,180,16.3,16.3,74,0.00,,,0.00,WUHU216HW,2013-12-19 17:53:00,
2013-12-19 11:54:00,64.2,55.9,29.78,South,180,16.3,16.3,74,0.00,,,0.00,WUHU216HW,2013-12-19 17:54:00,
2013-12-19 11:57:00,64.3,56.0,29.78,SSW,203,13.2,16.3,74,0.00,,,0.00,WUHU216HW,2013-12-19 17:57:00,
2013-12-19 11:58:00,64.3,56.0,29.78,SSW,203,13.2,16.3,74,0.00,,,0.00,WUHU216HW,2013-12-19 17:58:00,
2013-12-19 11:59:00,64.5,56.2,29.78,SSW,203,13.0,16.3,74,0.00,,,0.00,WUHU216HW,2013-12-19 17:59:00,
2013-12-19 12:02:00,64.5,56.2,29.77,SSW,203,12.1,18.8,74,0.00,,,0.00,WUHU216HW,2013-12-19 18:02:00,
2013-12-19 12:03:00,64.5,56.2,29.77,SSW,203,12.1,18.8,74,0.00,,,0.00,WUHU216HW,2013-12-19 18:03:00,
2013-12-19 12:04:00,64.7,56.3,29.77,SSE,158,12.8,18.8,74,0.00,,,0.00,WUHU216HW,2013-12-19 18:04:00,
2013-12-19 12:05:00,64.7,56.3,29.77,South,180,11.6,18.8,74,0.00,,,0.00,WUHU216HW,2013-12-19 18:05:00,
2013-12-19 12:08:00,64.9,56.5,29.77,SSE,158,9.4,18.8,74,0.00,,,0.00,WUHU216HW,2013-12-19 18:08:00,
2013-12-19 12:09:00,65.1,56.7,29.77,SSE,158,13.0,16.8,74,0.00,,,0.00,WUHU216HW,2013-12-19 18:09:00,
2013-12-19 12:10:00,65.1,56.4,29.77,SSE,158,11.9,13.0,73,0.00,,,0.00,WUHU216HW,2013-12-19 18:10:00,
2013-12-19 12:11:00,65.2,56.5,29.77,SSE,158,16.1,16.1,73,0.00,,,0.00,WUHU216HW,2013-12-19 18:11:00,
2013-12-19 12:13:00,65.4,56.7,29.76,SSW,203,12.8,16.1,73,0.00,,,0.00,WUHU216HW,2013-12-19 18:13:00,
2013-12-19 12:14:00,65.4,56.7,29.76,SSW,203,11.9,16.1,73,0.00,,,0.00,WUHU216HW,2013-12-19 18:14:00,
2013-12-19 12:15:00,65.6,56.5,29.76,South,180,15.9,16.1,72,0.00,,,0.00,WUHU216HW,2013-12-19 18:15:00,
2013-12-19 12:16:00,65.6,56.5,29.76,SW,225,16.8,16.8,72,0.00,,,0.00,WUHU216HW,2013-12-19 18:16:00,
2013-12-19 12:18:00,65.8,56.7,29.76,SSE,158,16.3,16.8,72,0.00,,,0.00,WUHU216HW,2013-12-19 18:18:00,
2013-12-19 12:19:00,65.8,56.7,29.76,SSW,203,14.3,16.8,72,0.00,,,0.00,WUHU216HW,2013-12-19 18:19:00,
2013-12-19 12:20:00,65.8,56.7,29.76,SSW,203,14.3,16.8,72,0.00,,,0.00,WUHU216HW,2013-12-19 18:20:00,
2013-12-19 12:21:00,66.0,56.5,29.76,SSW,203,18.8,18.8,71,0.00,,,0.00,WUHU216HW,2013-12-19 18:21:00,
2013-12-19 12:23:00,66.0,56.5,29.76,SW,225,10.5,18.8,71,0.00,,,0.00,WUHU216HW,2013-12-19 18:23:00,
2013-12-19 12:24:00,66.0,56.5,29.76,SSE,158,16.1,18.8,71,0.00,,,0.00,WUHU216HW,2013-12-19 18:24:00,
2013-12-19 12:25:00,66.1,56.6,29.75,South,180,15.0,18.8,71,0.00,,,0.00,WUHU216HW,2013-12-19 18:25:00,
2013-12-19 12:26:00,66.0,56.5,29.75,SW,225,15.0,18.8,71,0.00,,,0.00,WUHU216HW,2013-12-19 18:26:00,
2013-12-19 12:28:00,66.0,56.5,29.76,SSW,203,20.8,20.8,71,0.00,,,0.00,WUHU216HW,2013-12-19 18:28:00,
2013-12-19 12:29:00,66.0,56.5,29.76,SSW,203,20.8,20.8,71,0.00,,,0.00,WUHU216HW,2013-12-19 18:29:00,
2013-12-19 12:31:00,66.0,56.5,29.75,SSW,203,12.8,20.8,71,0.00,,,0.00,WUHU216HW,2013-12-19 18:31:00,
2013-12-19 12:32:00,65.8,56.7,29.75,South,180,12.8,20.8,72,0.00,,,0.00,WUHU216HW,2013-12-19 18:32:00,
2013-12-19 12:33:00,66.0,56.5,29.75,SSW,203,16.1,20.8,71,0.00,,,0.00,WUHU216HW,2013-12-19 18:33:00,
2013-12-19 12:34:00,66.0,56.5,29.75,SSW,203,16.1,20.8,71,0.00,,,0.00,WUHU216HW,2013-12-19 18:34:00,
2013-12-19 12:35:00,65.8,56.7,29.75,SSW,203,8.5,20.8,72,0.00,,,0.00,WUHU216HW,2013-12-19 18:35:00,
2013-12-19 12:36:00,65.8,56.7,29.75,South,180,9.8,20.8,72,0.00,,,0.00,WUHU216HW,2013-12-19 18:36:00,
2013-12-19 12:37:00,66.0,56.9,29.75,SSW,203,10.5,20.8,72,0.00,,,0.00,WUHU216HW,2013-12-19 18:37:00,
2013-12-19 12:39:00,66.0,56.9,29.75,SSE,158,12.8,16.1,72,0.00,,,0.00,WUHU216HW,2013-12-19 18:39:00,
2013-12-19 12:40:00,66.0,56.9,29.75,SW,225,12.8,16.1,72,0.00,,,0.00,WUHU216HW,2013-12-19 18:40:00,
2013-12-19 12:41:00,66.0,56.5,29.75,SW,225,10.7,16.1,71,0.00,,,0.00,WUHU216HW,2013-12-19 18:41:00,
2013-12-19 12:42:00,66.0,56.5,29.75,SW,225,10.7,16.1,71,0.00,,,0.00,WUHU216HW,2013-12-19 18:42:00,
2013-12-19 12:44:00,65.8,56.7,29.74,SSW,203,16.8,16.8,72,0.00,,,0.00,WUHU216HW,2013-12-19 18:44:00,
2013-12-19 12:45:00,66.0,56.9,29.74,SW,225,12.1,16.8,72,0.00,,,0.00,WUHU216HW,2013-12-19 18:45:00,
2013-12-19 12:47:00,66.0,56.9,29.74,South,180,11.9,16.8,72,0.00,,,0.00,WUHU216HW,2013-12-19 18:47:00,
2013-12-19 12:49:00,66.1,57.0,29.74,SSW,203,8.7,16.8,72,0.00,,,0.00,WUHU216HW,2013-12-19 18:49:00,
2013-12-19 12:50:00,66.3,57.2,29.74,SW,225,7.6,16.8,72,0.00,,,0.00,WUHU216HW,2013-12-19 18:50:00,
2013-12-19 12:51:00,66.3,57.2,29.74,SW,225,7.6,16.8,72,0.00,,,0.00,WUHU216HW,2013-12-19 18:51:00,
2013-12-19 12:52:00,66.3,57.2,29.74,SSW,203,13.6,16.8,72,0.00,,,0.00,WUHU216HW,2013-12-19 18:52:00,
2013-12-19 12:53:00,66.3,57.2,29.74,SSW,203,12.3,13.6,72,0.00,,,0.00,WUHU216HW,2013-12-19 18:53:00,
2013-12-19 12:54:00,66.3,56.8,29.74,South,180,12.8,13.6,71,0.00,,,0.00,WUHU216HW,2013-12-19 18:54:00,
2013-12-19 12:55:00,66.5,57.3,29.74,SW,225,12.3,13.6,72,0.00,,,0.00,WUHU216HW,2013-12-19 18:55:00,
2013-12-19 12:56:00,66.7,57.2,29.74,SSW,203,17.7,17.7,71,0.00,,,0.00,WUHU216HW,2013-12-19 18:56:00,
2013-12-19 12:57:00,66.7,57.2,29.74,SSW,203,14.3,17.7,71,0.00,,,0.00,WUHU216HW,2013-12-19 18:57:00,
2013-12-19 12:58:00,66.9,57.3,29.74,South,180,9.2,17.7,71,0.00,,,0.00,WUHU216HW,2013-12-19 18:58:00,
2013-12-19 12:59:00,67.0,57.1,29.74,SSW,203,12.8,17.7,70,0.00,,,0.00,WUHU216HW,2013-12-19 18:59:00,
2013-12-19 13:00:00,67.0,57.1,29.74,SSW,203,12.3,17.7,70,0.00,,,0.00,WUHU216HW,2013-12-19 19:00:00,
2013-12-19 13:01:00,67.2,57.2,29.74,SW,225,6.3,17.7,70,0.00,,,0.00,WUHU216HW,2013-12-19 19:01:00,
2013-12-19 13:02:00,67.2,57.2,29.74,SSW,203,12.1,17.7,70,0.00,,,0.00,WUHU216HW,2013-12-19 19:02:00,
2013-12-19 13:04:00,67.6,57.6,29.74,South,180,8.7,17.7,70,0.00,,,0.00,WUHU216HW,2013-12-19 19:04:00,
2013-12-19 13:05:00,67.8,57.8,29.73,SW,225,9.2,17.7,70,0.00,,,0.00,WUHU216HW,2013-12-19 19:05:00,
2013-12-19 13:06:00,67.9,57.9,29.73,SW,225,8.3,14.3,70,0.00,,,0.00,WUHU216HW,2013-12-19 19:06:00,
2013-12-19 13:07:00,68.1,57.7,29.73,SSW,203,13.2,13.2,69,0.00,,,0.00,WUHU216HW,2013-12-19 19:07:00,
2013-12-19 13:08:00,68.1,57.3,29.73,SW,225,13.4,13.4,68,0.00,,,0.00,WUHU216HW,2013-12-19 19:08:00,
2013-12-19 13:09:00,68.1,57.3,29.73,South,180,16.8,16.8,68,0.00,,,0.00,WUHU216HW,2013-12-19 19:09:00,
2013-12-19 13:10:00,67.9,57.1,29.73,SSW,203,14.3,16.8,68,0.00,,,0.00,WUHU216HW,2013-12-19 19:10:00,
2013-12-19 13:11:00,67.9,57.1,29.73,SSW,203,13.6,16.8,68,0.00,,,0.00,WUHU216HW,2013-12-19 19:11:00,
2013-12-19 13:12:00,67.8,57.0,29.73,South,180,15.4,16.8,68,0.00,,,0.00,WUHU216HW,2013-12-19 19:12:00,
2013-12-19 13:13:00,67.9,57.1,29.73,South,180,13.4,16.8,68,0.00,,,0.00,WUHU216HW,2013-12-19 19:13:00,
2013-12-19 13:15:00,68.1,57.3,29.72,SSW,203,19.2,19.2,68,0.00,,,0.00,WUHU216HW,2013-12-19 19:15:00,
2013-12-19 13:17:00,67.9,57.1,29.72,SSW,203,18.6,19.2,68,0.00,,,0.00,WUHU216HW,2013-12-19 19:17:00,
2013-12-19 13:18:00,67.9,56.7,29.72,SSW,203,16.3,19.2,67,0.00,,,0.00,WUHU216HW,2013-12-19 19:18:00,
2013-12-19 13:20:00,68.1,57.3,29.72,SSW,203,14.1,19.2,68,0.00,,,0.00,WUHU216HW,2013-12-19 19:20:00,
2013-12-19 13:21:00,68.3,57.5,29.72,SSW,203,11.6,19.2,68,0.00,,,0.00,WUHU216HW,2013-12-19 19:21:00,
2013-12-19 13:22:00,68.5,57.7,29.72,SSW,203,10.7,19.2,68,0.00,,,0.00,WUHU216HW,2013-12-19 19:22:00,
2013-12-19 13:23:00,68.5,57.3,29.72,SSW,203,12.8,19.2,67,0.00,,,0.00,WUHU216HW,2013-12-19 19:23:00,
2013-12-19 13:25:00,68.7,57.5,29.72,SSW,203,20.6,20.6,67,0.00,,,0.00,WUHU216HW,2013-12-19 19:25:00,
2013-12-19 13:26:00,68.8,57.2,29.72,SSW,203,18.3,20.6,66,0.00,,,0.00,WUHU216HW,2013-12-19 19:26:00,
2013-12-19 13:27:00,68.8,57.2,29.72,SW,225,19.9,20.6,66,0.00,,,0.00,WUHU216HW,2013-12-19 19:27:00,
2013-12-19 13:28:00,68.8,57.2,29.71,SSW,203,16.3,20.6,66,0.00,,,0.00,WUHU216HW,2013-12-19 19:28:00,
2013-12-19 13:30:00,69.2,57.1,29.72,SSE,158,17.7,20.6,65,0.00,,,0.00,WUHU216HW,2013-12-19 19:30:00,
2013-12-19 13:31:00,69.2,57.1,29.72,SSE,158,17.7,20.6,65,0.00,,,0.00,WUHU216HW,2013-12-19 19:31:00,
2013-12-19 13:32:00,69.2,57.1,29.72,South,180,16.3,20.6,65,0.00,,,0.00,WUHU216HW,2013-12-19 19:32:00,
2013-12-19 13:33:00,69.2,57.1,29.72,South,180,16.3,20.6,65,0.00,,,0.00,WUHU216HW,2013-12-19 19:33:00,
2013-12-19 13:34:00,69.4,57.3,29.71,SSW,203,17.4,20.6,65,0.00,,,0.00,WUHU216HW,2013-12-19 19:34:00,
2013-12-19 13:35:00,69.6,57.5,29.71,SW,225,14.8,19.9,65,0.00,,,0.00,WUHU216HW,2013-12-19 19:35:00,
2013-12-19 13:36:00,69.6,57.5,29.71,SSW,203,11.0,19.9,65,0.00,,,0.00,WUHU216HW,2013-12-19 19:36:00,
2013-12-19 13:37:00,69.7,57.6,29.71,SSW,203,9.8,19.9,65,0.00,,,0.00,WUHU216HW,2013-12-19 19:37:00,
2013-12-19 13:38:00,69.7,57.6,29.71,SSW,203,9.8,19.9,65,0.00,,,0.00,WUHU216HW,2013-12-19 19:38:00,
2013-12-19 13:39:00,69.7,57.6,29.71,SSW,203,18.6,19.9,65,0.00,,,0.00,WUHU216HW,2013-12-19 19:39:00,
2013-12-19 13:41:00,69.9,57.8,29.71,SSW,203,14.8,22.8,65,0.00,,,0.00,WUHU216HW,2013-12-19 19:41:00,
2013-12-19 13:42:00,69.9,57.8,29.71,South,180,13.4,22.8,65,0.00,,,0.00,WUHU216HW,2013-12-19 19:42:00,
2013-12-19 13:44:00,69.9,57.4,29.71,South,180,15.9,22.8,64,0.00,,,0.00,WUHU216HW,2013-12-19 19:44:00,
2013-12-19 13:46:00,70.1,57.5,29.71,South,180,20.1,22.8,64,0.00,,,0.00,WUHU216HW,2013-12-19 19:46:00,
2013-12-19 13:47:00,70.1,57.5,29.71,South,180,14.3,22.8,64,0.00,,,0.00,WUHU216HW,2013-12-19 19:47:00,
2013-12-19 13:49:00,69.9,57.4,29.71,SW,225,15.4,22.8,64,0.00,,,0.00,WUHU216HW,2013-12-19 19:49:00,
2013-12-19 13:51:00,69.9,57.4,29.71,SW,225,15.0,20.1,64,0.00,,,0.00,WUHU216HW,2013-12-19 19:51:00,
2013-12-19 13:52:00,69.7,57.2,29.70,SSW,203,14.5,20.1,64,0.00,,,0.00,WUHU216HW,2013-12-19 19:52:00,
2013-12-19 13:54:00,69.6,57.1,29.71,SSW,203,14.5,20.1,64,0.00,,,0.00,WUHU216HW,2013-12-19 19:54:00,
2013-12-19 13:56:00,69.6,57.5,29.70,South,180,8.5,15.4,65,0.00,,,0.00,WUHU216HW,2013-12-19 19:56:00,
2013-12-19 13:57:00,69.6,57.5,29.70,SSW,203,5.6,15.4,65,0.00,,,0.00,WUHU216HW,2013-12-19 19:57:00,
2013-12-19 13:58:00,69.6,57.5,29.70,SSW,203,5.6,15.4,65,0.00,,,0.00,WUHU216HW,2013-12-19 19:58:00,
2013-12-19 13:59:00,69.7,57.6,29.70,South,180,10.5,15.0,65,0.00,,,0.00,WUHU216HW,2013-12-19 19:59:00,
2013-12-19 14:00:00,69.9,57.8,29.70,SSW,203,16.1,16.1,65,0.00,,,0.00,WUHU216HW,2013-12-19 20:00:00,
2013-12-19 14:01:00,69.9,57.8,29.70,SSW,203,15.4,16.1,65,0.00,,,0.00,WUHU216HW,2013-12-19 20:01:00,
2013-12-19 14:02:00,69.9,57.4,29.70,SSW,203,10.3,16.1,64,0.00,,,0.00,WUHU216HW,2013-12-19 20:02:00,
2013-12-19 14:03:00,69.9,57.4,29.70,SSW,203,13.0,16.1,64,0.00,,,0.00,WUHU216HW,2013-12-19 20:03:00,
2013-12-19 14:05:00,70.1,57.5,29.70,SSW,203,15.4,16.1,64,0.00,,,0.00,WUHU216HW,2013-12-19 20:05:00,
2013-12-19 14:06:00,70.1,57.5,29.70,SSW,203,12.5,16.1,64,0.00,,,0.00,WUHU216HW,2013-12-19 20:06:00,
2013-12-19 14:07:00,70.3,57.7,29.70,South,180,16.3,16.3,64,0.00,,,0.00,WUHU216HW,2013-12-19 20:07:00,
2013-12-19 14:08:00,70.3,57.7,29.70,SSW,203,11.9,16.3,64,0.00,,,0.00,WUHU216HW,2013-12-19 20:08:00,
2013-12-19 14:10:00,70.6,58.5,29.69,SSW,203,13.0,16.3,65,0.00,,,0.00,WUHU216HW,2013-12-19 20:10:00,
2013-12-19 14:11:00,70.6,58.0,29.70,South,180,13.6,16.3,64,0.00,,,0.00,WUHU216HW,2013-12-19 20:11:00,
2013-12-19 14:12:00,70.8,58.2,29.70,SSW,203,9.8,16.3,64,0.00,,,0.00,WUHU216HW,2013-12-19 20:12:00,
2013-12-19 14:13:00,70.8,58.2,29.70,South,180,17.2,17.2,64,0.00,,,0.00,WUHU216HW,2013-12-19 20:13:00,
2013-12-19 14:15:00,70.8,58.2,29.70,SW,225,14.3,17.2,64,0.00,,,0.00,WUHU216HW,2013-12-19 20:15:00,
2013-12-19 14:16:00,70.8,58.2,29.70,SW,225,14.3,17.2,64,0.00,,,0.00,WUHU216HW,2013-12-19 20:16:00,
2013-12-19 14:17:00,71.0,58.8,29.70,SSW,203,12.8,17.2,65,0.00,,,0.00,WUHU216HW,2013-12-19 20:17:00,
2013-12-19 14:18:00,71.0,58.4,29.70,SSW,203,18.6,18.6,64,0.00,,,0.00,WUHU216HW,2013-12-19 20:18:00,
2013-12-19 14:20:00,71.0,58.4,29.70,SW,225,14.5,18.6,64,0.00,,,0.00,WUHU216HW,2013-12-19 20:20:00,
2013-12-19 14:21:00,70.8,57.8,29.69,SSW,203,20.1,20.1,63,0.00,,,0.00,WUHU216HW,2013-12-19 20:21:00,
2013-12-19 14:22:00,70.6,58.0,29.69,SSW,203,16.1,20.1,64,0.00,,,0.00,WUHU216HW,2013-12-19 20:22:00,
2013-12-19 14:23:00,70.8,58.2,29.69,SE,135,11.6,20.1,64,0.00,,,0.00,WUHU216HW,2013-12-19 20:23:00,
2013-12-19 14:24:00,70.8,58.2,29.70,SSW,203,17.9,20.1,64,0.00,,,0.00,WUHU216HW,2013-12-19 20:24:00,
2013-12-19 14:25:00,70.8,58.6,29.69,SSW,203,10.5,20.1,65,0.00,,,0.00,WUHU216HW,2013-12-19 20:25:00,
2013-12-19 14:26:00,70.8,58.2,29.69,WSW,248,14.5,20.1,64,0.00,,,0.00,WUHU216HW,2013-12-19 20:26:00,
2013-12-19 14:27:00,71.0,58.4,29.69,SSW,203,19.2,20.1,64,0.00,,,0.00,WUHU216HW,2013-12-19 20:27:00,
2013-12-19 14:28:00,70.8,58.2,29.69,SSW,203,14.3,20.1,64,0.00,,,0.00,WUHU216HW,2013-12-19 20:28:00,
2013-12-19 14:29:00,70.8,58.2,29.69,SW,225,16.6,20.1,64,0.00,,,0.00,WUHU216HW,2013-12-19 20:29:00,
2013-12-19 14:30:00,71.0,58.4,29.69,South,180,10.7,20.1,64,0.00,,,0.00,WUHU216HW,2013-12-19 20:30:00,
2013-12-19 14:31:00,71.0,58.4,29.69,SSW,203,14.3,19.2,64,0.00,,,0.00,WUHU216HW,2013-12-19 20:31:00,
2013-12-19 14:32:00,71.0,58.0,29.69,South,180,20.1,20.1,63,0.00,,,0.00,WUHU216HW,2013-12-19 20:32:00,
2013-12-19 14:33:00,71.0,58.0,29.69,SSW,203,12.5,20.1,63,0.00,,,0.00,WUHU216HW,2013-12-19 20:33:00,
2013-12-19 14:35:00,70.8,58.2,29.69,SSW,203,12.1,20.1,64,0.00,,,0.00,WUHU216HW,2013-12-19 20:35:00,
2013-12-19 14:36:00,70.8,58.2,29.69,South,180,11.9,20.1,64,0.00,,,0.00,WUHU216HW,2013-12-19 20:36:00,
2013-12-19 14:37:00,70.8,58.2,29.69,SSW,203,13.0,20.1,64,0.00,,,0.00,WUHU216HW,2013-12-19 20:37:00,
2013-12-19 14:38:00,70.6,58.0,29.69,SSW,203,14.3,20.1,64,0.00,,,0.00,WUHU216HW,2013-12-19 20:38:00,
2013-12-19 14:39:00,70.6,58.0,29.69,SSW,203,14.3,20.1,64,0.00,,,0.00,WUHU216HW,2013-12-19 20:39:00,
2013-12-19 14:40:00,70.6,58.0,29.69,South,180,9.8,20.1,64,0.00,,,0.00,WUHU216HW,2013-12-19 20:40:00,
2013-12-19 14:42:00,70.8,58.2,29.69,SSE,158,8.9,14.3,64,0.00,,,0.00,WUHU216HW,2013-12-19 20:42:00,
2013-12-19 14:43:00,70.8,58.2,29.69,SSE,158,15.0,15.0,64,0.00,,,0.00,WUHU216HW,2013-12-19 20:43:00,
2013-12-19 14:44:00,70.8,58.2,29.69,SSE,158,15.0,15.0,64,0.00,,,0.00,WUHU216HW,2013-12-19 20:44:00,
2013-12-19 14:45:00,71.0,58.4,29.69,SW,225,17.0,17.0,64,0.00,,,0.00,WUHU216HW,2013-12-19 20:45:00,
2013-12-19 14:46:00,71.0,58.4,29.69,SW,225,17.0,17.0,64,0.00,,,0.00,WUHU216HW,2013-12-19 20:46:00,
2013-12-19 14:47:00,70.8,57.8,29.68,SSW,203,13.9,17.0,63,0.00,,,0.00,WUHU216HW,2013-12-19 20:47:00,
2013-12-19 14:48:00,70.6,58.0,29.69,SSE,158,19.2,19.2,64,0.00,,,0.00,WUHU216HW,2013-12-19 20:48:00,
2013-12-19 14:49:00,70.6,58.0,29.68,SSW,203,15.7,19.2,64,0.00,,,0.00,WUHU216HW,2013-12-19 20:49:00,
2013-12-19 14:50:00,70.6,58.0,29.68,SSW,203,15.7,19.2,64,0.00,,,0.00,WUHU216HW,2013-12-19 20:50:00,
2013-12-19 14:51:00,70.6,58.0,29.69,SSW,203,17.2,19.2,64,0.00,,,0.00,WUHU216HW,2013-12-19 20:51:00,
2013-12-19 14:52:00,70.6,58.5,29.69,SSW,203,12.8,19.2,65,0.00,,,0.00,WUHU216HW,2013-12-19 20:52:00,
2013-12-19 14:53:00,70.8,58.6,29.69,SSW,203,9.6,19.2,65,0.00,,,0.00,WUHU216HW,2013-12-19 20:53:00,
2013-12-19 14:54:00,70.8,58.2,29.69,SSW,203,11.4,19.2,64,0.00,,,0.00,WUHU216HW,2013-12-19 20:54:00,
2013-12-19 14:55:00,70.8,58.2,29.69,SSW,203,11.4,19.2,64,0.00,,,0.00,WUHU216HW,2013-12-19 20:55:00,
2013-12-19 14:56:00,71.0,58.8,29.69,South,180,8.1,19.2,65,0.00,,,0.00,WUHU216HW,2013-12-19 20:56:00,
2013-12-19 14:58:00,71.4,58.8,29.69,SSW,203,10.1,19.2,64,0.00,,,0.00,WUHU216HW,2013-12-19 20:58:00,
2013-12-19 15:00:00,71.4,58.3,29.68,South,180,10.5,14.5,63,0.00,,,0.00,WUHU216HW,2013-12-19 21:00:00,
2013-12-19 15:01:00,71.4,58.3,29.68,SSW,203,13.2,14.5,63,0.00,,,0.00,WUHU216HW,2013-12-19 21:01:00,
2013-12-19 15:03:00,71.2,58.2,29.69,SSE,158,8.9,14.5,63,0.00,,,0.00,WUHU216HW,2013-12-19 21:03:00,
2013-12-19 15:06:00,71.2,58.2,29.68,SSW,203,14.3,14.5,63,0.00,,,0.00,WUHU216HW,2013-12-19 21:06:00,
2013-12-19 15:08:00,71.2,58.6,29.68,SSW,203,15.0,15.0,64,0.00,,,0.00,WUHU216HW,2013-12-19 21:08:00,
2013-12-19 15:11:00,71.0,58.0,29.69,SSW,203,11.9,18.1,63,0.00,,,0.00,WUHU216HW,2013-12-19 21:11:00,
2013-12-19 15:12:00,71.0,58.0,29.69,SSW,203,8.5,18.1,63,0.00,,,0.00,WUHU216HW,2013-12-19 21:12:00,
2013-12-19 15:14:00,70.8,57.8,29.69,South,180,15.0,18.1,63,0.00,,,0.00,WUHU216HW,2013-12-19 21:14:00,
2013-12-19 15:16:00,70.6,58.0,29.69,SSW,203,15.9,18.1,64,0.00,,,0.00,WUHU216HW,2013-12-19 21:16:00,
2013-12-19 15:17:00,70.6,58.0,29.69,SSW,203,13.4,18.1,64,0.00,,,0.00,WUHU216HW,2013-12-19 21:17:00,
2013-12-19 15:18:00,70.6,58.0,29.69,SW,225,16.1,18.1,64,0.00,,,0.00,WUHU216HW,2013-12-19 21:18:00,
2013-12-19 15:19:00,70.6,58.0,29.69,SSW,203,11.4,18.1,64,0.00,,,0.00,WUHU216HW,2013-12-19 21:19:00,
2013-12-19 15:21:00,70.6,58.0,29.69,SSW,203,13.2,16.1,64,0.00,,,0.00,WUHU216HW,2013-12-19 21:21:00,
2013-12-19 15:22:00,70.6,58.0,29.69,SSW,203,17.0,17.0,64,0.00,,,0.00,WUHU216HW,2013-12-19 21:22:00,
2013-12-19 15:23:00,70.5,57.9,29.69,SW,225,8.3,17.0,64,0.00,,,0.00,WUHU216HW,2013-12-19 21:23:00,
2013-12-19 15:24:00,70.5,58.4,29.69,SSW,203,12.1,17.0,65,0.00,,,0.00,WUHU216HW,2013-12-19 21:24:00,
2013-12-19 15:26:00,70.6,58.0,29.68,South,180,11.4,17.0,64,0.00,,,0.00,WUHU216HW,2013-12-19 21:26:00,
2013-12-19 15:27:00,70.6,58.0,29.68,South,180,11.4,17.0,64,0.00,,,0.00,WUHU216HW,2013-12-19 21:27:00,
2013-12-19 15:29:00,70.8,58.2,29.68,SSW,203,9.6,17.0,64,0.00,,,0.00,WUHU216HW,2013-12-19 21:29:00,
2013-12-19 15:30:00,71.0,58.4,29.68,SSW,203,10.5,17.0,64,0.00,,,0.00,WUHU216HW,2013-12-19 21:30:00,
2013-12-19 15:32:00,71.0,58.4,29.68,South,180,9.2,15.2,64,0.00,,,0.00,WUHU216HW,2013-12-19 21:32:00,
2013-12-19 15:33:00,71.0,58.4,29.68,South,180,9.2,15.2,64,0.00,,,0.00,WUHU216HW,2013-12-19 21:33:00,
2013-12-19 15:34:00,71.2,58.2,29.68,SSE,158,14.3,15.2,63,0.00,,,0.00,WUHU216HW,2013-12-19 21:34:00,
2013-12-19 15:35:00,71.2,58.2,29.68,SW,225,11.4,15.2,63,0.00,,,0.00,WUHU216HW,2013-12-19 21:35:00,
2013-12-19 15:37:00,71.2,58.2,29.68,South,180,11.4,15.2,63,0.00,,,0.00,WUHU216HW,2013-12-19 21:37:00,
2013-12-19 15:38:00,71.2,58.2,29.68,South,180,7.4,14.3,63,0.00,,,0.00,WUHU216HW,2013-12-19 21:38:00,
2013-12-19 15:39:00,71.2,58.2,29.69,South,180,10.1,14.3,63,0.00,,,0.00,WUHU216HW,2013-12-19 21:39:00,
2013-12-19 15:41:00,71.2,58.2,29.69,SSE,158,8.5,14.3,63,0.00,,,0.00,WUHU216HW,2013-12-19 21:41:00,
2013-12-19 15:42:00,71.2,58.6,29.69,South,180,7.6,14.3,64,0.00,,,0.00,WUHU216HW,2013-12-19 21:42:00,
2013-12-19 15:43:00,71.2,58.2,29.69,South,180,15.7,15.7,63,0.00,,,0.00,WUHU216HW,2013-12-19 21:43:00,
2013-12-19 15:44:00,71.2,58.2,29.69,SSW,203,12.1,15.7,63,0.00,,,0.00,WUHU216HW,2013-12-19 21:44:00,
2013-12-19 15:46:00,71.2,58.2,29.69,SSW,203,12.8,15.7,63,0.00,,,0.00,WUHU216HW,2013-12-19 21:46:00,
2013-12-19 15:47:00,71.0,58.0,29.69,SW,225,10.5,15.7,63,0.00,,,0.00,WUHU216HW,2013-12-19 21:47:00,
2013-12-19 15:48:00,71.0,58.0,29.69,SSW,203,9.6,15.7,63,0.00,,,0.00,WUHU216HW,2013-12-19 21:48:00,
2013-12-19 15:49:00,70.8,58.2,29.69,SSW,203,8.5,15.7,64,0.00,,,0.00,WUHU216HW,2013-12-19 21:49:00,
2013-12-19 15:51:00,70.8,58.2,29.69,South,180,11.4,15.7,64,0.00,,,0.00,WUHU216HW,2013-12-19 21:51:00,
2013-12-19 15:52:00,70.6,58.0,29.68,South,180,13.6,15.7,64,0.00,,,0.00,WUHU216HW,2013-12-19 21:52:00,
2013-12-19 15:53:00,70.6,58.0,29.69,South,180,15.0,15.0,64,0.00,,,0.00,WUHU216HW,2013-12-19 21:53:00,
2013-12-19 15:54:00,70.6,58.0,29.69,South,180,15.0,15.0,64,0.00,,,0.00,WUHU216HW,2013-12-19 21:54:00,
2013-12-19 15:55:00,70.6,58.0,29.68,SSW,203,13.2,15.0,64,0.00,,,0.00,WUHU216HW,2013-12-19 21:55:00,
2013-12-19 15:56:00,70.6,58.0,29.68,SSW,203,7.8,15.0,64,0.00,,,0.00,WUHU216HW,2013-12-19 21:56:00,
2013-12-19 15:57:00,70.5,57.9,29.69,SW,225,11.6,15.0,64,0.00,,,0.00,WUHU216HW,2013-12-19 21:57:00,
2013-12-19 15:58:00,70.6,58.0,29.68,SSW,203,9.2,15.0,64,0.00,,,0.00,WUHU216HW,2013-12-19 21:58:00,
2013-12-19 15:59:00,70.6,58.0,29.68,SW,225,10.1,15.0,64,0.00,,,0.00,WUHU216HW,2013-12-19 21:59:00,
2013-12-19 16:00:00,70.5,57.9,29.68,South,180,8.1,15.0,64,0.00,,,0.00,WUHU216HW,2013-12-19 22:00:00,
2013-12-19 16:01:00,70.5,57.9,29.68,SSW,203,13.9,15.0,64,0.00,,,0.00,WUHU216HW,2013-12-19 22:01:00,
2013-12-19 16:03:00,70.5,57.9,29.68,South,180,8.1,14.5,64,0.00,,,0.00,WUHU216HW,2013-12-19 22:03:00,
2013-12-19 16:04:00,70.5,57.9,29.68,SSE,158,13.2,14.5,64,0.00,,,0.00,WUHU216HW,2013-12-19 22:04:00,
2013-12-19 16:05:00,70.5,57.9,29.68,SSW,203,15.0,15.0,64,0.00,,,0.00,WUHU216HW,2013-12-19 22:05:00,
2013-12-19 16:06:00,70.5,57.9,29.68,South,180,13.9,15.0,64,0.00,,,0.00,WUHU216HW,2013-12-19 22:06:00,
2013-12-19 16:08:00,70.5,57.9,29.68,SSE,158,11.4,15.0,64,0.00,,,0.00,WUHU216HW,2013-12-19 22:08:00,
2013-12-19 16:09:00,70.6,58.0,29.68,South,180,9.6,15.0,64,0.00,,,0.00,WUHU216HW,2013-12-19 22:09:00,
2013-12-19 16:10:00,70.6,58.0,29.68,South,180,9.6,15.0,64,0.00,,,0.00,WUHU216HW,2013-12-19 22:10:00,
2013-12-19 16:12:00,70.6,58.0,29.68,SSE,158,8.9,16.3,64,0.00,,,0.00,WUHU216HW,2013-12-19 22:12:00,
2013-12-19 16:13:00,70.6,58.0,29.68,SSE,158,12.3,16.3,64,0.00,,,0.00,WUHU216HW,2013-12-19 22:13:00,
2013-12-19 16:14:00,70.6,58.0,29.68,SSE,158,10.5,16.3,64,0.00,,,0.00,WUHU216HW,2013-12-19 22:14:00,
2013-12-19 16:15:00,70.6,58.0,29.68,SSE,158,10.5,16.3,64,0.00,,,0.00,WUHU216HW,2013-12-19 22:15:00,
2013-12-19 16:17:00,70.6,57.6,29.68,SSW,203,15.0,16.3,63,0.00,,,0.00,WUHU216HW,2013-12-19 22:17:00,
2013-12-19 16:18:00,70.6,58.0,29.68,South,180,11.6,16.3,64,0.00,,,0.00,WUHU216HW,2013-12-19 22:18:00,
2013-12-19 16:19:00,70.6,57.6,29.68,SSW,203,11.4,16.3,63,0.00,,,0.00,WUHU216HW,2013-12-19 22:19:00,
2013-12-19 16:20:00,70.6,58.0,29.68,SSE,158,12.8,16.3,64,0.00,,,0.00,WUHU216HW,2013-12-19 22:20:00,
2013-12-19 16:22:00,70.6,58.0,29.68,South,180,11.4,15.0,64,0.00,,,0.00,WUHU216HW,2013-12-19 22:22:00,
2013-12-19 16:24:00,70.6,58.0,29.68,South,180,9.2,15.0,64,0.00,,,0.00,WUHU216HW,2013-12-19 22:24:00,
2013-12-19 16:25:00,70.6,58.0,29.68,SSE,158,12.1,15.0,64,0.00,,,0.00,WUHU216HW,2013-12-19 22:25:00,
2013-12-19 16:26:00,70.6,58.0,29.68,SSE,158,12.1,15.0,64,0.00,,,0.00,WUHU216HW,2013-12-19 22:26:00,
2013-12-19 16:27:00,70.5,57.9,29.68,SSW,203,12.1,12.8,64,0.00,,,0.00,WUHU216HW,2013-12-19 22:27:00,
2013-12-19 16:29:00,70.5,57.9,29.68,SSW,203,10.5,12.8,64,0.00,,,0.00,WUHU216HW,2013-12-19 22:29:00,
2013-12-19 16:30:00,70.3,57.7,29.68,South,180,7.2,12.1,64,0.00,,,0.00,WUHU216HW,2013-12-19 22:30:00,
2013-12-19 16:31:00,70.3,57.7,29.68,South,180,7.2,12.1,64,0.00,,,0.00,WUHU216HW,2013-12-19 22:31:00,
2013-12-19 16:33:00,70.3,57.3,29.68,South,180,13.2,13.2,63,0.00,,,0.00,WUHU216HW,2013-12-19 22:33:00,
2013-12-19 16:34:00,70.3,57.3,29.68,SSE,158,8.5,13.2,63,0.00,,,0.00,WUHU216HW,2013-12-19 22:34:00,
2013-12-19 16:35:00,70.3,57.3,29.68,South,180,8.5,13.2,63,0.00,,,0.00,WUHU216HW,2013-12-19 22:35:00,
2013-12-19 16:36:00,70.3,57.3,29.68,South,180,8.5,13.2,63,0.00,,,0.00,WUHU216HW,2013-12-19 22:36:00,
2013-12-19 16:38:00,70.3,57.3,29.68,South,180,4.7,13.2,63,0.00,,,0.00,WUHU216HW,2013-12-19 22:38:00,
2013-12-19 16:39:00,70.1,57.5,29.68,SSW,203,4.5,13.2,64,0.00,,,0.00,WUHU216HW,2013-12-19 22:39:00,
2013-12-19 16:40:00,70.1,57.5,29.68,SSE,158,9.8,13.2,64,0.00,,,0.00,WUHU216HW,2013-12-19 22:40:00,
2013-12-19 16:41:00,70.1,57.5,29.68,SSE,158,9.8,13.2,64,0.00,,,0.00,WUHU216HW,2013-12-19 22:41:00,
2013-12-19 16:43:00,69.9,57.8,29.68,SSE,158,8.9,10.5,65,0.00,,,0.00,WUHU216HW,2013-12-19 22:43:00,
2013-12-19 16:44:00,69.9,57.8,29.68,SSE,158,8.9,10.5,65,0.00,,,0.00,WUHU216HW,2013-12-19 22:44:00,
2013-12-19 16:46:00,69.7,57.6,29.68,SSE,158,6.3,10.5,65,0.00,,,0.00,WUHU216HW,2013-12-19 22:46:00,
2013-12-19 16:47:00,69.7,57.6,29.68,SE,135,6.3,9.8,65,0.00,,,0.00,WUHU216HW,2013-12-19 22:47:00,
2013-12-19 16:48:00,69.6,57.5,29.68,South,180,7.2,9.8,65,0.00,,,0.00,WUHU216HW,2013-12-19 22:48:00,
2013-12-19 16:49:00,69.6,57.5,29.68,SE,135,5.8,9.8,65,0.00,,,0.00,WUHU216HW,2013-12-19 22:49:00,
2013-12-19 16:51:00,69.4,57.3,29.68,SSE,158,8.5,9.8,65,0.00,,,0.00,WUHU216HW,2013-12-19 22:51:00,
2013-12-19 16:52:00,69.4,57.3,29.68,SSE,158,8.5,9.8,65,0.00,,,0.00,WUHU216HW,2013-12-19 22:52:00,
2013-12-19 16:53:00,69.2,57.1,29.68,SSE,158,5.1,9.8,65,0.00,,,0.00,WUHU216HW,2013-12-19 22:53:00,
2013-12-19 16:54:00,69.2,57.5,29.68,SSE,158,8.5,9.8,66,0.00,,,0.00,WUHU216HW,2013-12-19 22:54:00,
2013-12-19 16:55:00,69.2,57.5,29.68,SSE,158,8.1,9.8,66,0.00,,,0.00,WUHU216HW,2013-12-19 22:55:00,
2013-12-19 16:57:00,69.2,57.5,29.68,South,180,10.5,10.5,66,0.00,,,0.00,WUHU216HW,2013-12-19 22:57:00,
2013-12-19 16:58:00,69.0,57.4,29.68,SSE,158,9.8,10.5,66,0.00,,,0.00,WUHU216HW,2013-12-19 22:58:00,
2013-12-19 16:59:00,69.0,57.4,29.67,SSE,158,7.2,10.5,66,0.00,,,0.00,WUHU216HW,2013-12-19 22:59:00,
2013-12-19 17:00:00,68.8,57.2,29.68,SSE,158,7.2,10.5,66,0.00,,,0.00,WUHU216HW,2013-12-19 23:00:00,
2013-12-19 17:02:00,68.8,57.6,29.67,South,180,9.4,10.5,67,0.00,,,0.00,WUHU216HW,2013-12-19 23:02:00,
2013-12-19 17:04:00,68.7,57.5,29.67,SSE,158,9.2,10.5,67,0.00,,,0.00,WUHU216HW,2013-12-19 23:04:00,
2013-12-19 17:06:00,68.7,57.5,29.67,SSE,158,7.6,9.8,67,0.00,,,0.00,WUHU216HW,2013-12-19 23:06:00,
2013-12-19 17:07:00,68.5,57.3,29.67,SSE,158,9.2,9.8,67,0.00,,,0.00,WUHU216HW,2013-12-19 23:07:00,
2013-12-19 17:08:00,68.5,57.3,29.67,SSE,158,9.2,9.8,67,0.00,,,0.00,WUHU216HW,2013-12-19 23:08:00,
2013-12-19 17:09:00,68.5,57.7,29.67,SSE,158,8.1,9.4,68,0.00,,,0.00,WUHU216HW,2013-12-19 23:09:00,
2013-12-19 17:11:00,68.5,57.7,29.67,SSE,158,10.1,10.7,68,0.00,,,0.00,WUHU216HW,2013-12-19 23:11:00,
2013-12-19 17:12:00,68.5,57.7,29.67,SSE,158,8.3,10.7,68,0.00,,,0.00,WUHU216HW,2013-12-19 23:12:00,
2013-12-19 17:13:00,68.5,57.7,29.67,South,180,8.7,10.7,68,0.00,,,0.00,WUHU216HW,2013-12-19 23:13:00,
2013-12-19 17:14:00,68.5,57.7,29.67,SSE,158,6.3,10.7,68,0.00,,,0.00,WUHU216HW,2013-12-19 23:14:00,
2013-12-19 17:15:00,68.5,57.7,29.67,SSE,158,6.3,10.7,68,0.00,,,0.00,WUHU216HW,2013-12-19 23:15:00,
2013-12-19 17:16:00,68.3,57.5,29.68,SSE,158,8.5,10.7,68,0.00,,,0.00,WUHU216HW,2013-12-19 23:16:00,
2013-12-19 17:17:00,68.3,57.5,29.67,SSW,203,9.2,10.7,68,0.00,,,0.00,WUHU216HW,2013-12-19 23:17:00,
2013-12-19 17:18:00,68.3,57.5,29.67,SSW,203,9.2,10.7,68,0.00,,,0.00,WUHU216HW,2013-12-19 23:18:00,
2013-12-19 17:19:00,68.1,57.3,29.68,SSE,158,7.6,10.7,68,0.00,,,0.00,WUHU216HW,2013-12-19 23:19:00,
2013-12-19 17:20:00,68.1,57.3,29.67,SSE,158,7.6,10.1,68,0.00,,,0.00,WUHU216HW,2013-12-19 23:20:00,
2013-12-19 17:21:00,68.1,57.7,29.67,SSE,158,8.9,9.8,69,0.00,,,0.00,WUHU216HW,2013-12-19 23:21:00,
2013-12-19 17:23:00,68.1,57.7,29.68,SSE,158,10.1,10.1,69,0.00,,,0.00,WUHU216HW,2013-12-19 23:23:00,
2013-12-19 17:24:00,68.1,57.7,29.67,South,180,8.1,10.7,69,0.00,,,0.00,WUHU216HW,2013-12-19 23:24:00,
2013-12-19 17:25:00,68.1,57.7,29.68,SSE,158,8.1,10.7,69,0.00,,,0.00,WUHU216HW,2013-12-19 23:25:00,
2013-12-19 17:26:00,68.1,57.7,29.67,SSW,203,11.2,11.2,69,0.00,,,0.00,WUHU216HW,2013-12-19 23:26:00,
2013-12-19 17:28:00,67.9,57.5,29.67,SSE,158,5.8,11.2,69,0.00,,,0.00,WUHU216HW,2013-12-19 23:28:00,
2013-12-19 17:29:00,67.9,57.5,29.68,SSE,158,10.1,11.2,69,0.00,,,0.00,WUHU216HW,2013-12-19 23:29:00,
2013-12-19 17:30:00,67.9,57.5,29.68,SSE,158,9.4,11.2,69,0.00,,,0.00,WUHU216HW,2013-12-19 23:30:00,
2013-12-19 17:31:00,67.9,57.5,29.68,SSE,158,12.1,12.1,69,0.00,,,0.00,WUHU216HW,2013-12-19 23:31:00,
2013-12-19 17:32:00,67.9,57.5,29.68,SSE,158,12.1,12.1,69,0.00,,,0.00,WUHU216HW,2013-12-19 23:32:00,
2013-12-19 17:33:00,67.9,57.5,29.68,South,180,11.0,12.1,69,0.00,,,0.00,WUHU216HW,2013-12-19 23:33:00,
2013-12-19 17:34:00,67.9,57.5,29.68,SSW,203,7.8,12.1,69,0.00,,,0.00,WUHU216HW,2013-12-19 23:34:00,
2013-12-19 17:35:00,67.9,57.5,29.68,SE,135,11.4,12.1,69,0.00,,,0.00,WUHU216HW,2013-12-19 23:35:00,
2013-12-19 17:37:00,67.9,57.5,29.68,SE,135,8.3,12.1,69,0.00,,,0.00,WUHU216HW,2013-12-19 23:37:00,
2013-12-19 17:38:00,67.9,57.5,29.68,SSE,158,9.2,12.1,69,0.00,,,0.00,WUHU216HW,2013-12-19 23:38:00,
2013-12-19 17:40:00,67.8,57.4,29.68,SSE,158,8.5,12.1,69,0.00,,,0.00,WUHU216HW,2013-12-19 23:40:00,
2013-12-19 17:42:00,67.8,57.4,29.68,SSW,203,8.9,11.4,69,0.00,,,0.00,WUHU216HW,2013-12-19 23:42:00,
2013-12-19 17:43:00,67.8,57.4,29.68,SSW,203,6.3,11.4,69,0.00,,,0.00,WUHU216HW,2013-12-19 23:43:00,
2013-12-19 17:45:00,67.8,57.4,29.68,SSW,203,7.8,11.4,69,0.00,,,0.00,WUHU216HW,2013-12-19 23:45:00,
2013-12-19 17:46:00,67.8,57.4,29.68,SSW,203,9.2,9.2,69,0.00,,,0.00,WUHU216HW,2013-12-19 23:46:00,
2013-12-19 17:47:00,67.8,57.4,29.68,South,180,7.6,9.2,69,0.00,,,0.00,WUHU216HW,2013-12-19 23:47:00,
2013-12-19 17:48:00,67.8,57.4,29.68,South,180,12.1,12.1,69,0.00,,,0.00,WUHU216HW,2013-12-19 23:48:00,
2013-12-19 17:49:00,67.8,57.4,29.68,South,180,12.1,12.1,69,0.00,,,0.00,WUHU216HW,2013-12-19 23:49:00,
2013-12-19 17:50:00,67.6,57.2,29.68,South,180,7.2,12.1,69,0.00,,,0.00,WUHU216HW,2013-12-19 23:50:00,
2013-12-19 17:51:00,67.6,57.2,29.68,SSW,203,5.8,12.1,69,0.00,,,0.00,WUHU216HW,2013-12-19 23:51:00,
2013-12-19 17:52:00,67.6,57.2,29.68,South,180,8.5,12.1,69,0.00,,,0.00,WUHU216HW,2013-12-19 23:52:00,
2013-12-19 17:53:00,67.6,57.2,29.68,South,180,8.5,12.1,69,0.00,,,0.00,WUHU216HW,2013-12-19 23:53:00,
2013-12-19 17:54:00,67.8,57.4,29.68,SSE,158,7.8,12.1,69,0.00,,,0.00,WUHU216HW,2013-12-19 23:54:00,
2013-12-19 17:56:00,67.6,57.2,29.68,South,180,12.3,12.3,69,0.00,,,0.00,WUHU216HW,2013-12-19 23:56:00,
2013-12-19 17:57:00,67.6,57.2,29.68,South,180,8.3,12.3,69,0.00,,,0.00,WUHU216HW,2013-12-19 23:57:00,
2013-12-19 17:58:00,67.6,57.2,29.68,SSW,203,7.6,12.3,69,0.00,,,0.00,WUHU216HW,2013-12-19 23:58:00,
2013-12-19 17:59:00,67.6,57.2,29.68,South,180,8.1,12.3,69,0.00,,,0.00,WUHU216HW,2013-12-19 23:59:00,
2013-12-19 18:01:00,67.6,57.2,29.68,SSE,158,8.1,12.3,69,0.00,,,0.00,WUHU216HW,2013-12-20 00:01:00,
2013-12-19 18:02:00,67.6,57.2,29.68,SE,135,9.8,12.3,69,0.00,,,0.00,WUHU216HW,2013-12-20 00:02:00,
2013-12-19 18:03:00,67.6,57.2,29.68,SSW,203,8.1,12.3,69,0.00,,,0.00,WUHU216HW,2013-12-20 00:03:00,
2013-12-19 18:04:00,67.6,57.2,29.68,SSW,203,8.1,12.3,69,0.00,,,0.00,WUHU216HW,2013-12-20 00:04:00,
2013-12-19 18:06:00,67.4,57.4,29.68,SW,225,7.8,9.8,70,0.00,,,0.00,WUHU216HW,2013-12-20 00:06:00,
2013-12-19 18:07:00,67.4,57.4,29.68,South,180,12.1,12.1,70,0.00,,,0.00,WUHU216HW,2013-12-20 00:07:00,
2013-12-19 18:08:00,67.4,57.4,29.68,SSE,158,6.9,12.1,70,0.00,,,0.00,WUHU216HW,2013-12-20 00:08:00,
2013-12-19 18:09:00,67.4,57.4,29.68,SSE,158,8.7,12.1,70,0.00,,,0.00,WUHU216HW,2013-12-20 00:09:00,
2013-12-19 18:10:00,67.4,57.4,29.68,South,180,7.2,12.1,70,0.00,,,0.00,WUHU216HW,2013-12-20 00:10:00,
2013-12-19 18:11:00,67.4,57.4,29.68,SSE,158,6.7,12.1,70,0.00,,,0.00,WUHU216HW,2013-12-20 00:11:00,
2013-12-19 18:13:00,67.4,57.4,29.68,SSE,158,6.3,12.1,70,0.00,,,0.00,WUHU216HW,2013-12-20 00:13:00,
2013-12-19 18:14:00,67.4,57.4,29.68,SSW,203,6.3,12.1,70,0.00,,,0.00,WUHU216HW,2013-12-20 00:14:00,
2013-12-19 18:15:00,67.4,57.4,29.68,SSE,158,7.6,12.1,70,0.00,,,0.00,WUHU216HW,2013-12-20 00:15:00,
2013-12-19 18:17:00,67.4,57.4,29.68,SSE,158,9.4,9.4,70,0.00,,,0.00,WUHU216HW,2013-12-20 00:17:00,
2013-12-19 18:19:00,67.2,57.2,29.68,SSW,203,7.6,9.4,70,0.00,,,0.00,WUHU216HW,2013-12-20 00:19:00,
2013-12-19 18:20:00,67.2,57.2,29.68,SSE,158,7.6,9.4,70,0.00,,,0.00,WUHU216HW,2013-12-20 00:20:00,
2013-12-19 18:22:00,67.2,57.2,29.68,SSW,203,8.9,12.3,70,0.00,,,0.00,WUHU216HW,2013-12-20 00:22:00,
2013-12-19 18:24:00,67.4,57.4,29.68,SSE,158,8.5,12.3,70,0.00,,,0.00,WUHU216HW,2013-12-20 00:24:00,
2013-12-19 18:25:00,67.2,57.2,29.68,SSW,203,7.6,12.3,70,0.00,,,0.00,WUHU216HW,2013-12-20 00:25:00,
2013-12-19 18:27:00,67.2,57.2,29.68,South,180,6.9,12.3,70,0.00,,,0.00,WUHU216HW,2013-12-20 00:27:00,
2013-12-19 18:29:00,67.2,57.2,29.68,SSE,158,8.5,12.3,70,0.00,,,0.00,WUHU216HW,2013-12-20 00:29:00,
2013-12-19 18:30:00,67.2,57.2,29.68,South,180,11.6,12.3,70,0.00,,,0.00,WUHU216HW,2013-12-20 00:30:00,
2013-12-19 18:33:00,67.2,57.2,29.68,South,180,8.7,11.6,70,0.00,,,0.00,WUHU216HW,2013-12-20 00:33:00,
2013-12-19 18:34:00,67.0,57.1,29.68,South,180,8.5,11.6,70,0.00,,,0.00,WUHU216HW,2013-12-20 00:34:00,
2013-12-19 18:35:00,67.0,57.1,29.68,South,180,9.2,11.6,70,0.00,,,0.00,WUHU216HW,2013-12-20 00:35:00,
2013-12-19 18:39:00,67.0,57.1,29.68,South,180,7.2,11.6,70,0.00,,,0.00,WUHU216HW,2013-12-20 00:39:00,
2013-12-19 18:40:00,67.0,57.1,29.68,SSE,158,10.5,12.1,70,0.00,,,0.00,WUHU216HW,2013-12-20 00:40:00,
2013-12-19 18:44:00,67.0,57.1,29.68,SSW,203,8.9,12.1,70,0.00,,,0.00,WUHU216HW,2013-12-20 00:44:00,
2013-12-19 18:45:00,67.0,57.1,29.68,SSE,158,9.2,12.1,70,0.00,,,0.00,WUHU216HW,2013-12-20 00:45:00,
2013-12-19 18:46:00,67.0,57.1,29.68,South,180,8.5,12.1,70,0.00,,,0.00,WUHU216HW,2013-12-20 00:46:00,
2013-12-19 18:49:00,67.0,57.1,29.68,SSE,158,9.6,10.5,70,0.00,,,0.00,WUHU216HW,2013-12-20 00:49:00,
2013-12-19 18:51:00,66.9,57.0,29.68,SSE,158,6.3,9.6,70,0.00,,,0.00,WUHU216HW,2013-12-20 00:51:00,
2013-12-19 18:54:00,66.9,57.0,29.68,SE,135,7.8,10.7,70,0.00,,,0.00,WUHU216HW,2013-12-20 00:54:00,
2013-12-19 18:56:00,66.7,57.2,29.68,SSE,158,4.9,10.7,71,0.00,,,0.00,WUHU216HW,2013-12-20 00:56:00,
2013-12-19 18:57:00,66.7,57.2,29.68,SSE,158,4.9,10.7,71,0.00,,,0.00,WUHU216HW,2013-12-20 00:57:00,
2013-12-19 18:59:00,66.7,57.2,29.68,SSE,158,6.0,10.7,71,0.00,,,0.00,WUHU216HW,2013-12-20 00:59:00,
2013-12-19 19:00:00,66.7,57.2,29.68,SSE,158,6.3,10.7,71,0.00,,,0.00,WUHU216HW,2013-12-20 01:00:00,
2013-12-19 19:01:00,66.7,57.2,29.68,SSE,158,5.8,10.7,71,0.00,,,0.00,WUHU216HW,2013-12-20 01:01:00,
2013-12-19 19:02:00,66.7,57.2,29.68,SSE,158,6.0,8.1,71,0.00,,,0.00,WUHU216HW,2013-12-20 01:02:00,
2013-12-19 19:04:00,66.7,57.2,29.68,South,180,5.8,8.1,71,0.00,,,0.00,WUHU216HW,2013-12-20 01:04:00,
2013-12-19 19:05:00,66.7,57.2,29.69,South,180,4.9,8.1,71,0.00,,,0.00,WUHU216HW,2013-12-20 01:05:00,
2013-12-19 19:06:00,66.7,57.2,29.69,SSE,158,7.2,8.1,71,0.00,,,0.00,WUHU216HW,2013-12-20 01:06:00,
2013-12-19 19:07:00,66.7,57.2,29.69,SSE,158,5.4,8.1,71,0.00,,,0.00,WUHU216HW,2013-12-20 01:07:00,
2013-12-19 19:09:00,66.5,57.0,29.69,SSE,158,7.6,7.6,71,0.00,,,0.00,WUHU216HW,2013-12-20 01:09:00,
2013-12-19 19:10:00,66.5,57.0,29.69,South,180,7.6,7.6,71,0.00,,,0.00,WUHU216HW,2013-12-20 01:10:00,
2013-12-19 19:11:00,66.5,57.0,29.69,SSE,158,5.8,7.6,71,0.00,,,0.00,WUHU216HW,2013-12-20 01:11:00,
2013-12-19 19:13:00,66.5,57.3,29.69,SSW,203,6.3,7.8,72,0.00,,,0.00,WUHU216HW,2013-12-20 01:13:00,
2013-12-19 19:15:00,66.5,57.3,29.69,South,180,6.7,9.2,72,0.00,,,0.00,WUHU216HW,2013-12-20 01:15:00,
2013-12-19 19:16:00,66.5,57.3,29.69,SSE,158,9.8,9.8,72,0.00,,,0.00,WUHU216HW,2013-12-20 01:16:00,
2013-12-19 19:18:00,66.5,57.3,29.69,SSE,158,8.7,9.8,72,0.00,,,0.00,WUHU216HW,2013-12-20 01:18:00,
2013-12-19 19:20:00,66.5,57.3,29.69,SSW,203,7.6,9.8,72,0.00,,,0.00,WUHU216HW,2013-12-20 01:20:00,
2013-12-19 19:21:00,66.5,57.3,29.69,South,180,8.9,9.8,72,0.00,,,0.00,WUHU216HW,2013-12-20 01:21:00,
2013-12-19 19:22:00,66.5,57.3,29.69,South,180,8.9,9.8,72,0.00,,,0.00,WUHU216HW,2013-12-20 01:22:00,
2013-12-19 19:23:00,66.5,57.3,29.69,SSW,203,6.7,9.8,72,0.00,,,0.00,WUHU216HW,2013-12-20 01:23:00,
2013-12-19 19:25:00,66.5,57.3,29.69,SSE,158,7.4,10.5,72,0.00,,,0.00,WUHU216HW,2013-12-20 01:25:00,
2013-12-19 19:26:00,66.5,57.3,29.69,SE,135,5.8,10.5,72,0.00,,,0.00,WUHU216HW,2013-12-20 01:26:00,
2013-12-19 19:27:00,66.5,57.3,29.69,SE,135,5.8,10.5,72,0.00,,,0.00,WUHU216HW,2013-12-20 01:27:00,
2013-12-19 19:29:00,66.5,57.3,29.69,SSE,158,9.6,10.5,72,0.00,,,0.00,WUHU216HW,2013-12-20 01:29:00,
2013-12-19 19:30:00,66.5,57.3,29.69,South,180,8.5,10.5,72,0.00,,,0.00,WUHU216HW,2013-12-20 01:30:00,
2013-12-19 19:31:00,66.7,57.5,29.69,SSE,158,7.2,10.5,72,0.00,,,0.00,WUHU216HW,2013-12-20 01:31:00,
2013-12-19 19:33:00,66.5,57.3,29.69,South,180,6.9,10.5,72,0.00,,,0.00,WUHU216HW,2013-12-20 01:33:00,
2013-12-19 19:34:00,66.5,57.3,29.69,South,180,5.6,10.5,72,0.00,,,0.00,WUHU216HW,2013-12-20 01:34:00,
2013-12-19 19:35:00,66.5,57.3,29.69,South,180,9.2,9.6,72,0.00,,,0.00,WUHU216HW,2013-12-20 01:35:00,
2013-12-19 19:37:00,66.5,57.3,29.69,South,180,8.1,9.6,72,0.00,,,0.00,WUHU216HW,2013-12-20 01:37:00,
2013-12-19 19:38:00,66.5,57.3,29.69,South,180,8.1,9.2,72,0.00,,,0.00,WUHU216HW,2013-12-20 01:38:00,
2013-12-19 19:39:00,66.5,57.3,29.69,South,180,8.1,9.2,72,0.00,,,0.00,WUHU216HW,2013-12-20 01:39:00,
2013-12-19 19:40:00,66.5,57.7,29.69,SSE,158,8.7,9.2,73,0.00,,,0.00,WUHU216HW,2013-12-20 01:40:00,
2013-12-19 19:41:00,66.5,57.7,29.69,SSE,158,8.7,9.2,73,0.00,,,0.00,WUHU216HW,2013-12-20 01:41:00,
2013-12-19 19:42:00,66.5,57.3,29.68,South,180,6.3,10.1,72,0.00,,,0.00,WUHU216HW,2013-12-20 01:42:00,
2013-12-19 19:43:00,66.5,57.3,29.69,SSE,158,7.8,10.1,72,0.00,,,0.00,WUHU216HW,2013-12-20 01:43:00,
2013-12-19 19:44:00,66.5,57.3,29.69,SSE,158,7.8,10.1,72,0.00,,,0.00,WUHU216HW,2013-12-20 01:44:00,
2013-12-19 19:45:00,66.5,57.7,29.68,South,180,9.6,10.1,73,0.00,,,0.00,WUHU216HW,2013-12-20 01:45:00,
2013-12-19 19:46:00,66.5,57.7,29.69,SSE,158,6.7,10.1,73,0.00,,,0.00,WUHU216HW,2013-12-20 01:46:00,
2013-12-19 19:47:00,66.5,57.7,29.68,South,180,7.4,10.1,73,0.00,,,0.00,WUHU216HW,2013-12-20 01:47:00,
2013-12-19 19:48:00,66.5,57.7,29.69,SSE,158,8.5,10.1,73,0.00,,,0.00,WUHU216HW,2013-12-20 01:48:00,
2013-12-19 19:49:00,66.5,57.7,29.69,SSE,158,8.5,10.1,73,0.00,,,0.00,WUHU216HW,2013-12-20 01:49:00,
2013-12-19 19:50:00,66.5,57.7,29.69,South,180,9.2,11.2,73,0.00,,,0.00,WUHU216HW,2013-12-20 01:50:00,
2013-12-19 19:51:00,66.5,57.7,29.69,South,180,6.9,11.2,73,0.00,,,0.00,WUHU216HW,2013-12-20 01:51:00,
2013-12-19 19:52:00,66.5,57.7,29.69,SSE,158,5.6,11.2,73,0.00,,,0.00,WUHU216HW,2013-12-20 01:52:00,
2013-12-19 19:54:00,66.5,57.7,29.68,South,180,7.6,11.2,73,0.00,,,0.00,WUHU216HW,2013-12-20 01:54:00,
2013-12-19 19:55:00,66.5,57.7,29.69,South,180,8.1,11.2,73,0.00,,,0.00,WUHU216HW,2013-12-20 01:55:00,
2013-12-19 19:56:00,66.5,57.7,29.68,SSW,203,9.2,11.2,73,0.00,,,0.00,WUHU216HW,2013-12-20 01:56:00,
2013-12-19 19:57:00,66.3,57.5,29.69,SSE,158,7.6,11.2,73,0.00,,,0.00,WUHU216HW,2013-12-20 01:57:00,
2013-12-19 19:59:00,66.3,57.5,29.69,South,180,8.1,9.2,73,0.00,,,0.00,WUHU216HW,2013-12-20 01:59:00,
2013-12-19 20:00:00,66.3,57.5,29.69,SSE,158,9.8,9.8,73,0.00,,,0.00,WUHU216HW,2013-12-20 02:00:00,
2013-12-19 20:01:00,66.3,57.5,29.69,SSE,158,9.8,9.8,73,0.00,,,0.00,WUHU216HW,2013-12-20 02:01:00,
2013-12-19 20:02:00,66.3,57.5,29.69,South,180,9.2,9.8,73,0.00,,,0.00,WUHU216HW,2013-12-20 02:02:00,
2013-12-19 20:04:00,66.3,57.5,29.69,SSE,158,9.2,9.8,73,0.00,,,0.00,WUHU216HW,2013-12-20 02:04:00,
2013-12-19 20:05:00,66.5,57.7,29.69,South,180,5.4,9.8,73,0.00,,,0.00,WUHU216HW,2013-12-20 02:05:00,
2013-12-19 20:06:00,66.5,57.7,29.69,South,180,5.4,9.8,73,0.00,,,0.00,WUHU216HW,2013-12-20 02:06:00,
2013-12-19 20:07:00,66.3,57.5,29.69,SSE,158,8.7,9.8,73,0.00,,,0.00,WUHU216HW,2013-12-20 02:07:00,
2013-12-19 20:09:00,66.3,57.5,29.69,SE,135,6.3,9.8,73,0.00,,,0.00,WUHU216HW,2013-12-20 02:09:00,
2013-12-19 20:10:00,66.3,57.5,29.69,South,180,10.7,10.7,73,0.00,,,0.00,WUHU216HW,2013-12-20 02:10:00,
2013-12-19 20:11:00,66.3,57.5,29.69,SSE,158,8.9,10.7,73,0.00,,,0.00,WUHU216HW,2013-12-20 02:11:00,
2013-12-19 20:12:00,66.3,57.5,29.69,SSE,158,10.5,10.7,73,0.00,,,0.00,WUHU216HW,2013-12-20 02:12:00,
2013-12-19 20:15:00,66.3,57.9,29.68,SE,135,8.3,10.7,74,0.00,,,0.00,WUHU216HW,2013-12-20 02:15:00,
2013-12-19 20:16:00,66.3,57.9,29.69,SSE,158,7.8,10.7,74,0.00,,,0.00,WUHU216HW,2013-12-20 02:16:00,
2013-12-19 20:17:00,66.3,57.9,29.69,SSE,158,7.8,10.7,74,0.00,,,0.00,WUHU216HW,2013-12-20 02:17:00,
2013-12-19 20:18:00,66.3,57.9,29.68,SSE,158,7.6,10.7,74,0.00,,,0.00,WUHU216HW,2013-12-20 02:18:00,
2013-12-19 20:20:00,66.3,57.9,29.68,SSE,158,8.1,10.5,74,0.00,,,0.00,WUHU216HW,2013-12-20 02:20:00,
2013-12-19 20:21:00,66.3,57.9,29.68,SSE,158,9.8,10.5,74,0.00,,,0.00,WUHU216HW,2013-12-20 02:21:00,
2013-12-19 20:22:00,66.3,57.9,29.68,SSE,158,9.8,10.5,74,0.00,,,0.00,WUHU216HW,2013-12-20 02:22:00,
2013-12-19 20:23:00,66.3,57.9,29.68,SSE,158,8.7,11.0,74,0.00,,,0.00,WUHU216HW,2013-12-20 02:23:00,
2013-12-19 20:25:00,66.1,57.3,29.68,SSE,158,10.3,11.0,73,0.00,,,0.00,WUHU216HW,2013-12-20 02:25:00,
2013-12-19 20:26:00,66.1,57.7,29.68,SSE,158,8.5,11.0,74,0.00,,,0.00,WUHU216HW,2013-12-20 02:26:00,
2013-12-19 20:27:00,66.1,57.7,29.68,SSE,158,8.7,11.0,74,0.00,,,0.00,WUHU216HW,2013-12-20 02:27:00,
2013-12-19 20:28:00,66.1,57.7,29.67,SSE,158,13.0,13.0,74,0.00,,,0.00,WUHU216HW,2013-12-20 02:28:00,
2013-12-19 20:30:00,66.1,57.7,29.67,SSE,158,12.8,13.0,74,0.00,,,0.00,WUHU216HW,2013-12-20 02:30:00,
2013-12-19 20:32:00,66.1,57.7,29.67,SE,135,11.0,13.0,74,0.00,,,0.00,WUHU216HW,2013-12-20 02:32:00,
2013-12-19 20:33:00,66.1,57.7,29.67,SE,135,10.5,13.0,74,0.00,,,0.00,WUHU216HW,2013-12-20 02:33:00,
2013-12-19 20:35:00,66.1,57.7,29.66,South,180,11.9,13.0,74,0.00,,,0.00,WUHU216HW,2013-12-20 02:35:00,
2013-12-19 20:37:00,66.1,57.7,29.66,SSE,158,11.4,13.0,74,0.00,,,0.00,WUHU216HW,2013-12-20 02:37:00,
2013-12-19 20:38:00,66.1,57.7,29.66,SSE,158,8.7,12.8,74,0.00,,,0.00,WUHU216HW,2013-12-20 02:38:00,
2013-12-19 20:41:00,66.1,58.1,29.67,SSE,158,12.8,12.8,75,0.00,,,0.00,WUHU216HW,2013-12-20 02:41:00,
2013-12-19 20:42:00,66.1,57.7,29.67,South,180,12.3,12.8,74,0.00,,,0.00,WUHU216HW,2013-12-20 02:42:00,
2013-12-19 20:43:00,66.1,57.7,29.67,South,180,11.6,12.8,74,0.00,,,0.00,WUHU216HW,2013-12-20 02:43:00,
2013-12-19 20:46:00,66.1,58.1,29.67,South,180,10.3,12.8,75,0.00,,,0.00,WUHU216HW,2013-12-20 02:46:00,
2013-12-19 20:47:00,66.1,58.1,29.67,South,180,10.3,12.8,75,0.00,,,0.00,WUHU216HW,2013-12-20 02:47:00,
2013-12-19 20:48:00,66.1,58.1,29.67,SSE,158,10.1,12.8,75,0.00,,,0.00,WUHU216HW,2013-12-20 02:48:00,
2013-12-19 20:49:00,66.1,58.1,29.68,SSE,158,8.1,12.8,75,0.00,,,0.00,WUHU216HW,2013-12-20 02:49:00,
2013-12-19 20:52:00,66.1,58.1,29.68,South,180,17.7,17.7,75,0.00,,,0.00,WUHU216HW,2013-12-20 02:52:00,
2013-12-19 20:53:00,66.3,58.3,29.68,SSE,158,10.5,17.7,75,0.00,,,0.00,WUHU216HW,2013-12-20 02:53:00,
2013-12-19 20:54:00,66.3,58.3,29.68,South,180,10.5,17.7,75,0.00,,,0.00,WUHU216HW,2013-12-20 02:54:00,
2013-12-19 20:57:00,66.3,58.3,29.68,South,180,13.2,17.7,75,0.00,,,0.00,WUHU216HW,2013-12-20 02:57:00,
2013-12-19 20:58:00,66.3,58.6,29.68,South,180,12.3,17.7,76,0.00,,,0.00,WUHU216HW,2013-12-20 02:58:00,
2013-12-19 20:59:00,66.3,58.6,29.68,SSE,158,13.0,17.7,76,0.00,,,0.00,WUHU216HW,2013-12-20 02:59:00,
2013-12-19 21:02:00,66.3,58.6,29.68,SSE,158,10.3,13.4,76,0.00,,,0.00,WUHU216HW,2013-12-20 03:02:00,
2013-12-19 21:03:00,66.3,58.6,29.68,SSW,203,13.4,13.4,76,0.00,,,0.00,WUHU216HW,2013-12-20 03:03:00,
2013-12-19 21:04:00,66.3,58.6,29.68,SSW,203,13.4,13.4,76,0.00,,,0.00,WUHU216HW,2013-12-20 03:04:00,
2013-12-19 21:06:00,66.3,58.6,29.69,South,180,12.3,13.4,76,0.00,,,0.00,WUHU216HW,2013-12-20 03:06:00,
2013-12-19 21:07:00,66.3,58.6,29.69,South,180,13.0,13.4,76,0.00,,,0.00,WUHU216HW,2013-12-20 03:07:00,
2013-12-19 21:09:00,66.3,58.6,29.69,SSW,203,9.8,13.4,76,0.00,,,0.00,WUHU216HW,2013-12-20 03:09:00,
2013-12-19 21:10:00,66.3,58.6,29.69,SSW,203,9.8,13.4,76,0.00,,,0.00,WUHU216HW,2013-12-20 03:10:00,
2013-12-19 21:11:00,66.3,59.0,29.69,SSE,158,10.3,13.4,77,0.00,,,0.00,WUHU216HW,2013-12-20 03:11:00,
2013-12-19 21:12:00,66.3,59.0,29.69,SSE,158,12.8,13.4,77,0.00,,,0.00,WUHU216HW,2013-12-20 03:12:00,
2013-12-19 21:14:00,66.3,59.0,29.69,SSE,158,10.5,13.0,77,0.00,,,0.00,WUHU216HW,2013-12-20 03:14:00,
2013-12-19 21:15:00,66.3,59.0,29.69,SSE,158,10.5,13.0,77,0.00,,,0.00,WUHU216HW,2013-12-20 03:15:00,
2013-12-19 21:17:00,66.3,59.0,29.69,SSE,158,10.5,13.0,77,0.00,,,0.00,WUHU216HW,2013-12-20 03:17:00,
2013-12-19 21:19:00,66.3,59.0,29.69,SSE,158,13.4,13.4,77,0.00,,,0.00,WUHU216HW,2013-12-20 03:19:00,
2013-12-19 21:20:00,66.3,59.0,29.69,SSE,158,13.4,13.4,77,0.00,,,0.00,WUHU216HW,2013-12-20 03:20:00,
2013-12-19 21:22:00,66.3,59.0,29.69,South,180,7.8,13.4,77,0.00,,,0.00,WUHU216HW,2013-12-20 03:22:00,
2013-12-19 21:24:00,66.3,59.0,29.69,SSW,203,12.8,16.8,77,0.00,,,0.00,WUHU216HW,2013-12-20 03:24:00,
2013-12-19 21:25:00,66.3,59.0,29.69,SSW,203,12.8,16.8,77,0.00,,,0.00,WUHU216HW,2013-12-20 03:25:00,
2013-12-19 21:27:00,66.3,59.0,29.69,SSE,158,12.5,16.8,77,0.00,,,0.00,WUHU216HW,2013-12-20 03:27:00,
2013-12-19 21:29:00,66.3,59.0,29.69,SSE,158,13.4,16.8,77,0.00,,,0.00,WUHU216HW,2013-12-20 03:29:00,
2013-12-19 21:30:00,66.3,59.0,29.69,SSW,203,18.8,18.8,77,0.00,,,0.00,WUHU216HW,2013-12-20 03:30:00,
2013-12-19 21:31:00,66.3,59.0,29.69,SSW,203,18.8,18.8,77,0.00,,,0.00,WUHU216HW,2013-12-20 03:31:00,
2013-12-19 21:32:00,66.3,59.0,29.69,SSE,158,17.0,18.8,77,0.00,,,0.00,WUHU216HW,2013-12-20 03:32:00,
2013-12-19 21:33:00,66.3,59.0,29.69,SSE,158,17.0,18.8,77,0.00,,,0.00,WUHU216HW,2013-12-20 03:33:00,
2013-12-19 21:34:00,66.3,59.0,29.69,South,180,13.2,18.8,77,0.00,,,0.00,WUHU216HW,2013-12-20 03:34:00,
2013-12-19 21:36:00,66.3,59.0,29.69,SSW,203,11.4,18.8,77,0.00,,,0.00,WUHU216HW,2013-12-20 03:36:00,
2013-12-19 21:37:00,66.3,59.3,29.69,SSW,203,12.1,18.8,78,0.00,,,0.00,WUHU216HW,2013-12-20 03:37:00,
2013-12-19 21:38:00,66.3,59.3,29.69,SSW,203,12.1,18.8,78,0.00,,,0.00,WUHU216HW,2013-12-20 03:38:00,
2013-12-19 21:39:00,66.3,59.3,29.69,SSE,158,10.1,18.8,78,0.00,,,0.00,WUHU216HW,2013-12-20 03:39:00,
2013-12-19 21:40:00,66.3,59.3,29.69,SSE,158,10.1,18.8,78,0.00,,,0.00,WUHU216HW,2013-12-20 03:40:00,
2013-12-19 21:41:00,66.3,59.3,29.69,South,180,7.4,17.0,78,0.00,,,0.00,WUHU216HW,2013-12-20 03:41:00,
2013-12-19 21:42:00,66.3,59.3,29.69,South,180,7.8,15.0,78,0.00,,,0.00,WUHU216HW,2013-12-20 03:42:00,
2013-12-19 21:43:00,66.3,59.3,29.69,South,180,7.8,15.0,78,0.00,,,0.00,WUHU216HW,2013-12-20 03:43:00,
2013-12-19 21:45:00,66.3,59.3,29.70,SSW,203,10.1,15.0,78,0.00,,,0.00,WUHU216HW,2013-12-20 03:45:00,
2013-12-19 21:46:00,66.3,59.3,29.70,SSW,203,11.4,15.0,78,0.00,,,0.00,WUHU216HW,2013-12-20 03:46:00,
2013-12-19 21:47:00,66.3,59.3,29.69,SSW,203,13.9,15.0,78,0.00,,,0.00,WUHU216HW,2013-12-20 03:47:00,
2013-12-19 21:48:00,66.3,59.3,29.69,SSW,203,13.9,15.0,78,0.00,,,0.00,WUHU216HW,2013-12-20 03:48:00,
2013-12-19 21:50:00,66.3,59.3,29.69,South,180,14.3,15.0,78,0.00,,,0.00,WUHU216HW,2013-12-20 03:50:00,
2013-12-19 21:51:00,66.3,59.3,29.69,SSW,203,14.1,15.0,78,0.00,,,0.00,WUHU216HW,2013-12-20 03:51:00,
2013-12-19 21:52:00,66.3,59.3,29.69,SSE,158,18.3,18.3,78,0.00,,,0.00,WUHU216HW,2013-12-20 03:52:00,
2013-12-19 21:54:00,66.5,59.5,29.69,SSW,203,9.8,18.3,78,0.00,,,0.00,WUHU216HW,2013-12-20 03:54:00,
2013-12-19 21:55:00,66.5,59.5,29.69,SSW,203,12.1,18.3,78,0.00,,,0.00,WUHU216HW,2013-12-20 03:55:00,
2013-12-19 21:56:00,66.5,59.5,29.70,South,180,14.3,18.3,78,0.00,,,0.00,WUHU216HW,2013-12-20 03:56:00,
2013-12-19 21:59:00,66.5,59.9,29.69,South,180,14.3,18.3,79,0.00,,,0.00,WUHU216HW,2013-12-20 03:59:00,
2013-12-19 22:00:00,66.5,59.9,29.69,South,180,13.0,18.3,79,0.00,,,0.00,WUHU216HW,2013-12-20 04:00:00,
2013-12-19 22:01:00,66.5,59.9,29.69,SSW,203,12.1,18.3,79,0.00,,,0.00,WUHU216HW,2013-12-20 04:01:00,
2013-12-19 22:04:00,66.5,59.9,29.69,SSE,158,17.9,17.9,79,0.00,,,0.00,WUHU216HW,2013-12-20 04:04:00,
2013-12-19 22:05:00,66.5,59.9,29.70,SSE,158,13.9,17.9,79,0.00,,,0.00,WUHU216HW,2013-12-20 04:05:00,
2013-12-19 22:06:00,66.5,59.9,29.70,South,180,11.4,17.9,79,0.00,,,0.00,WUHU216HW,2013-12-20 04:06:00,
2013-12-19 22:07:00,66.5,59.9,29.70,SSW,203,11.4,17.9,79,0.00,,,0.00,WUHU216HW,2013-12-20 04:07:00,
2013-12-19 22:09:00,66.5,59.9,29.70,SSW,203,7.4,17.9,79,0.00,,,0.00,WUHU216HW,2013-12-20 04:09:00,
2013-12-19 22:10:00,66.5,59.9,29.70,SSW,203,7.4,17.9,79,0.00,,,0.00,WUHU216HW,2013-12-20 04:10:00,
2013-12-19 22:11:00,66.3,59.7,29.69,SSE,158,9.6,17.9,79,0.00,,,0.00,WUHU216HW,2013-12-20 04:11:00,
2013-12-19 22:13:00,66.3,59.7,29.69,SSE,158,17.0,17.9,79,0.00,,,0.00,WUHU216HW,2013-12-20 04:13:00,
2013-12-19 22:14:00,66.3,59.7,29.69,South,180,13.2,17.0,79,0.00,,,0.00,WUHU216HW,2013-12-20 04:14:00,
2013-12-19 22:15:00,66.3,59.7,29.69,SSW,203,14.3,17.0,79,0.00,,,0.00,WUHU216HW,2013-12-20 04:15:00,
2013-12-19 22:16:00,66.3,59.7,29.69,SSW,203,14.3,17.0,79,0.00,,,0.00,WUHU216HW,2013-12-20 04:16:00,
2013-12-19 22:19:00,66.3,60.0,29.69,South,180,9.6,17.9,80,0.00,,,0.00,WUHU216HW,2013-12-20 04:19:00,
2013-12-19 22:20:00,66.1,59.8,29.69,South,180,13.2,17.9,80,0.00,,,0.00,WUHU216HW,2013-12-20 04:20:00,
2013-12-19 22:21:00,66.1,59.8,29.68,SSE,158,14.1,17.9,80,0.00,,,0.00,WUHU216HW,2013-12-20 04:21:00,
2013-12-19 22:24:00,66.1,59.8,29.69,SSE,158,14.3,17.9,80,0.00,,,0.00,WUHU216HW,2013-12-20 04:24:00,
2013-12-19 22:25:00,66.1,59.8,29.69,South,180,12.1,17.9,80,0.00,,,0.00,WUHU216HW,2013-12-20 04:25:00,
2013-12-19 22:26:00,66.1,59.8,29.69,South,180,12.1,17.9,80,0.00,,,0.00,WUHU216HW,2013-12-20 04:26:00,
2013-12-19 22:29:00,66.1,59.8,29.68,SSW,203,14.3,16.3,80,0.00,,,0.00,WUHU216HW,2013-12-20 04:29:00,
2013-12-19 22:30:00,66.1,59.8,29.68,SSW,203,14.3,16.3,80,0.00,,,0.00,WUHU216HW,2013-12-20 04:30:00,
2013-12-19 22:31:00,66.1,59.8,29.68,South,180,17.4,17.4,80,0.00,,,0.00,WUHU216HW,2013-12-20 04:31:00,
2013-12-19 22:34:00,66.1,59.8,29.68,SSW,203,10.5,18.6,80,0.00,,,0.00,WUHU216HW,2013-12-20 04:34:00,
2013-12-19 22:35:00,66.1,59.8,29.68,SSW,203,10.5,18.6,80,0.00,,,0.00,WUHU216HW,2013-12-20 04:35:00,
2013-12-19 22:36:00,66.1,59.8,29.68,SSW,203,8.9,18.6,80,0.00,,,0.00,WUHU216HW,2013-12-20 04:36:00,
2013-12-19 22:40:00,66.1,59.8,29.68,SSE,158,11.4,18.6,80,0.00,,,0.00,WUHU216HW,2013-12-20 04:40:00,
2013-12-19 22:41:00,66.1,59.8,29.68,SSE,158,12.5,18.6,80,0.00,,,0.00,WUHU216HW,2013-12-20 04:41:00,
2013-12-19 22:42:00,66.1,59.8,29.68,SSW,203,12.1,18.6,80,0.00,,,0.00,WUHU216HW,2013-12-20 04:42:00,
2013-12-19 22:45:00,66.3,60.0,29.68,SSE,158,15.7,16.3,80,0.00,,,0.00,WUHU216HW,2013-12-20 04:45:00,
2013-12-19 22:46:00,66.3,60.0,29.68,South,180,9.2,16.3,80,0.00,,,0.00,WUHU216HW,2013-12-20 04:46:00,
2013-12-19 22:48:00,66.3,60.0,29.68,SSW,203,8.3,17.0,80,0.00,,,0.00,WUHU216HW,2013-12-20 04:48:00,
2013-12-19 22:50:00,66.3,60.0,29.68,SSE,158,9.2,17.0,80,0.00,,,0.00,WUHU216HW,2013-12-20 04:50:00,
2013-12-19 22:51:00,66.3,60.0,29.68,SSW,203,14.3,17.0,80,0.00,,,0.00,WUHU216HW,2013-12-20 04:51:00,
2013-12-19 22:53:00,66.3,60.0,29.69,SSE,158,10.7,17.0,80,0.00,,,0.00,WUHU216HW,2013-12-20 04:53:00,
2013-12-19 22:55:00,66.3,60.0,29.69,SSE,158,12.8,17.0,80,0.00,,,0.00,WUHU216HW,2013-12-20 04:55:00,
2013-12-19 22:56:00,66.3,60.0,29.69,SSW,203,10.5,17.0,80,0.00,,,0.00,WUHU216HW,2013-12-20 04:56:00,
2013-12-19 22:57:00,66.3,60.0,29.69,SW,225,12.1,17.0,80,0.00,,,0.00,WUHU216HW,2013-12-20 04:57:00,
2013-12-19 22:59:00,66.3,60.0,29.69,SSW,203,14.1,14.3,80,0.00,,,0.00,WUHU216HW,2013-12-20 04:59:00,
2013-12-19 23:00:00,66.3,60.0,29.69,South,180,13.6,15.0,80,0.00,,,0.00,WUHU216HW,2013-12-20 05:00:00,
2013-12-19 23:01:00,66.3,60.0,29.69,South,180,13.6,15.0,80,0.00,,,0.00,WUHU216HW,2013-12-20 05:01:00,
2013-12-19 23:06:00,66.3,60.0,29.70,SSE,158,12.5,15.0,80,0.00,,,0.00,WUHU216HW,2013-12-20 05:06:00,
2013-12-19 23:11:00,66.3,60.0,29.69,SSW,203,12.8,15.0,80,0.00,,,0.00,WUHU216HW,2013-12-20 05:11:00,
2013-12-19 23:12:00,66.3,60.0,29.69,South,180,11.6,14.3,80,0.00,,,0.00,WUHU216HW,2013-12-20 05:12:00,
2013-12-19 23:16:00,66.3,60.0,29.69,SSW,203,11.4,15.0,80,0.00,,,0.00,WUHU216HW,2013-12-20 05:16:00,
2013-12-19 23:17:00,66.3,60.0,29.69,SSW,203,11.4,15.0,80,0.00,,,0.00,WUHU216HW,2013-12-20 05:17:00,
2013-12-19 23:21:00,66.3,60.0,29.69,SSW,203,11.0,15.0,80,0.00,,,0.00,WUHU216HW,2013-12-20 05:21:00,
2013-12-19 23:22:00,66.3,60.0,29.69,SSW,203,14.1,15.0,80,0.00,,,0.00,WUHU216HW,2013-12-20 05:22:00,
2013-12-19 23:23:00,66.3,60.4,29.70,SW,225,14.3,15.0,81,0.00,,,0.00,WUHU216HW,2013-12-20 05:23:00,
2013-12-19 23:26:00,66.3,60.0,29.69,SSW,203,12.3,15.4,80,0.00,,,0.00,WUHU216HW,2013-12-20 05:26:00,
2013-12-19 23:27:00,66.3,60.0,29.69,SSW,203,12.3,15.4,80,0.00,,,0.00,WUHU216HW,2013-12-20 05:27:00,
2013-12-19 23:28:00,66.3,60.0,29.70,SSW,203,8.5,15.9,80,0.00,,,0.00,WUHU216HW,2013-12-20 05:28:00,
2013-12-19 23:31:00,66.3,60.0,29.70,SSW,203,10.1,15.9,80,0.00,,,0.00,WUHU216HW,2013-12-20 05:31:00,
2013-12-19 23:32:00,66.3,60.0,29.70,SSW,203,10.1,15.9,80,0.00,,,0.00,WUHU216HW,2013-12-20 05:32:00,
2013-12-19 23:33:00,66.3,60.0,29.70,SSW,203,8.7,15.9,80,0.00,,,0.00,WUHU216HW,2013-12-20 05:33:00,
2013-12-19 23:34:00,66.3,60.0,29.70,SSW,203,9.2,15.9,80,0.00,,,0.00,WUHU216HW,2013-12-20 05:34:00,
2013-12-19 23:36:00,66.3,60.0,29.70,South,180,6.7,15.9,80,0.00,,,0.00,WUHU216HW,2013-12-20 05:36:00,
2013-12-19 23:37:00,66.3,60.0,29.70,South,180,6.7,15.9,80,0.00,,,0.00,WUHU216HW,2013-12-20 05:37:00,
2013-12-19 23:38:00,66.3,60.0,29.70,South,180,12.1,14.1,80,0.00,,,0.00,WUHU216HW,2013-12-20 05:38:00,
2013-12-19 23:39:00,66.3,60.0,29.69,South,180,6.5,14.1,80,0.00,,,0.00,WUHU216HW,2013-12-20 05:39:00,
2013-12-19 23:41:00,66.3,60.0,29.70,SW,225,11.4,12.1,80,0.00,,,0.00,WUHU216HW,2013-12-20 05:41:00,
2013-12-19 23:42:00,66.3,60.0,29.70,SW,225,11.4,12.1,80,0.00,,,0.00,WUHU216HW,2013-12-20 05:42:00,
2013-12-19 23:43:00,66.3,60.0,29.70,SSW,203,7.6,12.1,80,0.00,,,0.00,WUHU216HW,2013-12-20 05:43:00,
2013-12-19 23:47:00,66.3,60.0,29.70,SSW,203,8.3,14.3,80,0.00,,,0.00,WUHU216HW,2013-12-20 05:47:00,
2013-12-19 23:48:00,66.3,60.0,29.70,SSW,203,6.5,14.3,80,0.00,,,0.00,WUHU216HW,2013-12-20 05:48:00,
2013-12-19 23:52:00,66.3,60.0,29.69,South,180,9.8,14.3,80,0.00,,,0.00,WUHU216HW,2013-12-20 05:52:00,
2013-12-19 23:53:00,66.3,60.0,29.69,SSW,203,9.2,14.3,80,0.00,,,0.00,WUHU216HW,2013-12-20 05:53:00,
2013-12-19 23:54:00,66.3,60.0,29.69,SSW,203,7.6,11.6,80,0.00,,,0.00,WUHU216HW,2013-12-20 05:54:00,
2013-12-19 23:57:00,66.3,60.0,29.69,SSE,158,11.4,11.4,80,0.00,,,0.00,WUHU216HW,2013-12-20 05:57:00,
2013-12-19 23:58:00,66.3,60.4,29.69,SSW,203,11.2,11.4,81,0.00,,,0.00,WUHU216HW,2013-12-20 05:58:00,
2013-12-19 23:59:00,66.3,60.4,29.69,SSW,203,8.7,11.4,81,0.00,,,0.00,WUHU216HW,2013-12-20 05:59:00,